Time,TemperatureF,DewpointF,PressureIn,WindDirection,WindDirectionDegrees,WindSpeedMPH,WindSpeedGustMPH,Humidity,HourlyPrecipIn,Conditions,Clouds,dailyrainin,SolarRadiationWatts/m^2,SoftwareType,DateUTC
2017-10-22 00:00:00,53.3,46.6,30.29,SSE,159,4.0,6.0,78,0.00,,SCT045,0.00,0.00,VWS V15.00,2017-10-21 13:30:00,
2017-10-22 00:01:00,53.3,46.6,30.28,South,177,7.0,7.0,78,0.00,,SCT045,0.00,0.00,VWS V15.00,2017-10-21 13:31:00,
2017-10-22 00:02:00,53.3,46.6,30.29,South,178,7.0,8.0,78,0.00,,SCT045,0.00,0.00,VWS V15.00,2017-10-21 13:32:00,
2017-10-22 00:03:00,53.3,46.6,30.29,South,178,4.0,8.0,78,0.00,,SCT045,0.00,0.00,VWS V15.00,2017-10-21 13:33:00,
2017-10-22 00:04:00,53.3,46.6,30.29,South,178,4.0,8.0,78,0.00,,SCT045,0.00,0.00,VWS V15.00,2017-10-21 13:34:00,
2017-10-22 00:05:00,53.3,46.6,30.29,SSW,209,3.0,8.0,78,0.00,,SCT045,0.00,0.00,VWS V15.00,2017-10-21 13:35:00,
2017-10-22 00:06:00,53.3,46.6,30.29,SSE,165,5.0,8.0,78,0.00,,SCT045,0.00,0.00,VWS V15.00,2017-10-21 13:36:00,
2017-10-22 00:07:00,53.3,46.6,30.28,South,173,2.0,8.0,78,0.00,,SCT045,0.00,0.00,VWS V15.00,2017-10-21 13:37:00,
2017-10-22 00:08:00,53.3,46.6,30.28,South,183,2.0,8.0,78,0.00,,SCT045,0.00,0.00,VWS V15.00,2017-10-21 13:38:00,
2017-10-22 00:10:00,53.3,46.6,30.28,South,179,1.0,3.0,78,0.00,,SCT045,0.00,0.00,VWS V15.00,2017-10-21 13:40:00,
2017-10-22 00:11:00,53.3,46.6,30.28,South,179,2.0,3.0,78,0.00,,SCT045,0.00,0.00,VWS V15.00,2017-10-21 13:41:00,
2017-10-22 00:12:00,53.3,46.6,30.28,South,178,5.0,5.0,78,0.00,,SCT045,0.00,0.00,VWS V15.00,2017-10-21 13:42:00,
2017-10-22 00:13:00,53.3,46.6,30.28,South,173,7.0,8.0,78,0.00,,SCT045,0.00,0.00,VWS V15.00,2017-10-21 13:43:00,
2017-10-22 00:14:00,53.3,46.6,30.28,South,188,5.0,8.0,78,0.00,,SCT045,0.00,0.00,VWS V15.00,2017-10-21 13:44:00,
2017-10-22 00:15:00,53.3,46.6,30.28,SSE,148,4.0,8.0,78,0.00,,SCT045,0.00,0.00,VWS V15.00,2017-10-21 13:45:00,
2017-10-22 00:16:00,53.3,46.6,30.28,SSE,155,6.0,8.0,78,0.00,,SCT045,0.00,0.00,VWS V15.00,2017-10-21 13:46:00,
2017-10-22 00:17:00,53.3,46.6,30.28,SSE,161,4.0,8.0,78,0.00,,SCT045,0.00,0.00,VWS V15.00,2017-10-21 13:47:00,
2017-10-22 00:18:00,53.3,46.6,30.28,SSE,168,8.0,8.0,78,0.00,,SCT045,0.00,0.00,VWS V15.00,2017-10-21 13:48:00,
2017-10-22 00:19:00,53.3,46.6,30.28,SSW,196,3.0,13.0,78,0.00,,SCT045,0.00,0.00,VWS V15.00,2017-10-21 13:49:00,
2017-10-22 00:20:00,53.3,46.6,30.28,South,188,5.0,13.0,78,0.00,,SCT045,0.00,0.00,VWS V15.00,2017-10-21 13:50:00,
2017-10-22 00:21:00,53.3,46.6,30.28,SSW,193,3.0,6.0,78,0.00,,SCT045,0.00,0.00,VWS V15.00,2017-10-21 13:51:00,
2017-10-22 00:22:00,53.2,46.5,30.28,SSW,209,8.0,8.0,78,0.00,,SCT045,0.00,0.00,VWS V15.00,2017-10-21 13:52:00,
2017-10-22 00:23:00,53.2,46.5,30.28,SSE,150,4.0,9.0,78,0.00,,SCT045,0.00,0.00,VWS V15.00,2017-10-21 13:53:00,
2017-10-22 00:24:00,53.2,46.5,30.28,South,182,3.0,9.0,78,0.00,,SCT045,0.00,0.00,VWS V15.00,2017-10-21 13:54:00,
2017-10-22 00:25:00,53.2,46.5,30.28,South,188,4.0,9.0,78,0.00,,SCT045,0.00,0.00,VWS V15.00,2017-10-21 13:55:00,
2017-10-22 00:26:00,53.2,46.5,30.28,SSE,159,4.0,7.0,78,0.00,,SCT045,0.00,0.00,VWS V15.00,2017-10-21 13:56:00,
2017-10-22 00:27:00,53.2,46.5,30.28,SSE,161,5.0,8.0,78,0.00,,SCT045,0.00,0.00,VWS V15.00,2017-10-21 13:57:00,
2017-10-22 00:28:00,53.1,46.4,30.28,South,171,6.0,8.0,78,0.00,,SCT045,0.00,0.00,VWS V15.00,2017-10-21 13:58:00,
2017-10-22 00:29:00,53.1,46.4,30.27,South,180,4.0,10.0,78,0.00,,SCT045,0.00,0.00,VWS V15.00,2017-10-21 13:59:00,
2017-10-22 00:30:00,53.1,46.4,30.27,South,171,4.0,10.0,78,0.00,,SCT045,0.00,0.00,VWS V15.00,2017-10-21 14:00:00,
2017-10-22 00:31:00,53.1,46.4,30.27,SSE,164,5.0,7.0,78,0.00,,SCT045,0.00,0.00,VWS V15.00,2017-10-21 14:01:00,
2017-10-22 00:32:00,53.0,46.3,30.27,SSE,162,7.0,7.0,78,0.00,,SCT045,0.00,0.00,VWS V15.00,2017-10-21 14:02:00,
2017-10-22 00:33:00,53.0,46.3,30.27,South,169,6.0,9.0,78,0.00,,SCT045,0.00,0.00,VWS V15.00,2017-10-21 14:03:00,
2017-10-22 00:34:00,53.0,46.3,30.27,SSE,152,7.0,9.0,78,0.00,,SCT045,0.00,0.00,VWS V15.00,2017-10-21 14:04:00,
2017-10-22 00:35:00,53.0,46.3,30.27,South,177,7.0,9.0,78,0.00,,SCT045,0.00,0.00,VWS V15.00,2017-10-21 14:05:00,
2017-10-22 00:36:00,53.0,46.3,30.27,South,188,8.0,9.0,78,0.00,,SCT045,0.00,0.00,VWS V15.00,2017-10-21 14:06:00,
2017-10-22 00:37:00,52.9,46.2,30.27,SSE,166,4.0,9.0,78,0.00,,SCT045,0.00,0.00,VWS V15.00,2017-10-21 14:07:00,
2017-10-22 00:38:00,52.9,46.2,30.27,South,169,5.0,9.0,78,0.00,,SCT045,0.00,0.00,VWS V15.00,2017-10-21 14:08:00,
2017-10-22 00:39:00,52.9,46.2,30.27,SSE,161,6.0,9.0,78,0.00,,SCT045,0.00,0.00,VWS V15.00,2017-10-21 14:09:00,
2017-10-22 00:40:00,52.9,46.2,30.27,SSE,159,5.0,9.0,78,0.00,,SCT045,0.00,0.00,VWS V15.00,2017-10-21 14:10:00,
2017-10-22 00:41:00,52.9,46.2,30.27,SSE,148,2.0,7.0,78,0.00,,SCT045,0.00,0.00,VWS V15.00,2017-10-21 14:11:00,
2017-10-22 00:42:00,52.9,46.2,30.27,SSE,162,7.0,7.0,78,0.00,,SCT045,0.00,0.00,VWS V15.00,2017-10-21 14:12:00,
2017-10-22 00:43:00,52.9,46.6,30.27,South,175,2.0,7.0,79,0.00,,SCT045,0.00,0.00,VWS V15.00,2017-10-21 14:13:00,
2017-10-22 00:44:00,52.8,46.5,30.27,South,180,5.0,7.0,79,0.00,,SCT045,0.00,0.00,VWS V15.00,2017-10-21 14:14:00,
2017-10-22 00:45:00,52.8,46.5,30.27,South,170,4.0,7.0,79,0.00,,SCT045,0.00,0.00,VWS V15.00,2017-10-21 14:15:00,
2017-10-22 00:46:00,52.8,46.5,30.26,SSE,167,2.0,5.0,79,0.00,,SCT045,0.00,0.00,VWS V15.00,2017-10-21 14:16:00,
2017-10-22 00:47:00,52.8,46.5,30.26,SSE,159,5.0,5.0,79,0.00,,SCT045,0.00,0.00,VWS V15.00,2017-10-21 14:17:00,
2017-10-22 00:48:00,52.8,46.5,30.26,SSE,156,6.0,7.0,79,0.00,,SCT045,0.00,0.00,VWS V15.00,2017-10-21 14:18:00,
2017-10-22 00:49:00,52.8,46.5,30.27,SSE,148,6.0,7.0,79,0.00,,SCT045,0.00,0.00,VWS V15.00,2017-10-21 14:19:00,
2017-10-22 00:50:00,52.8,46.5,30.27,SSE,167,4.0,7.0,79,0.00,,SCT045,0.00,0.00,VWS V15.00,2017-10-21 14:20:00,
2017-10-22 00:51:00,52.8,46.5,30.26,South,173,6.0,7.0,79,0.00,,SCT045,0.00,0.00,VWS V15.00,2017-10-21 14:21:00,
2017-10-22 00:52:00,52.8,46.5,30.26,South,177,6.0,7.0,79,0.00,,SCT045,0.00,0.00,VWS V15.00,2017-10-21 14:22:00,
2017-10-22 00:53:00,52.8,46.5,30.26,South,176,5.0,7.0,79,0.00,,SCT045,0.00,0.00,VWS V15.00,2017-10-21 14:23:00,
2017-10-22 00:54:00,52.7,46.4,30.26,South,176,1.0,7.0,79,0.00,,SCT045,0.00,0.00,VWS V15.00,2017-10-21 14:24:00,
2017-10-22 00:55:00,52.7,46.4,30.26,South,176,2.0,7.0,79,0.00,,SCT045,0.00,0.00,VWS V15.00,2017-10-21 14:25:00,
2017-10-22 00:56:00,52.7,46.4,30.26,South,177,5.0,5.0,79,0.00,,SCT045,0.00,0.00,VWS V15.00,2017-10-21 14:26:00,
2017-10-22 00:57:00,52.7,46.4,30.26,South,173,4.0,6.0,79,0.00,,SCT045,0.00,0.00,VWS V15.00,2017-10-21 14:27:00,
2017-10-22 00:58:00,52.7,46.4,30.26,South,173,4.0,6.0,79,0.00,,SCT045,0.00,0.00,VWS V15.00,2017-10-21 14:28:00,
2017-10-22 00:59:00,52.7,46.4,30.26,South,175,1.0,6.0,79,0.00,,SCT045,0.00,0.00,VWS V15.00,2017-10-21 14:29:00,
2017-10-22 01:00:00,52.7,46.4,30.26,South,175,2.0,6.0,79,0.00,,SCT045,0.00,0.00,VWS V15.00,2017-10-21 14:30:00,
2017-10-22 01:01:00,52.7,46.4,30.26,SSE,157,5.0,5.0,79,0.00,,SCT045,0.00,0.00,VWS V15.00,2017-10-21 14:31:00,
2017-10-22 01:02:00,52.7,46.4,30.26,SSE,161,2.0,6.0,79,0.00,,SCT045,0.00,0.00,VWS V15.00,2017-10-21 14:32:00,
2017-10-22 01:03:00,52.7,46.4,30.26,SSE,164,4.0,6.0,79,0.00,,SCT045,0.00,0.00,VWS V15.00,2017-10-21 14:33:00,
2017-10-22 01:04:00,52.7,46.4,30.26,SSE,166,6.0,7.0,79,0.00,,SCT045,0.00,0.00,VWS V15.00,2017-10-21 14:34:00,
2017-10-22 01:05:00,52.7,46.4,30.26,SSE,166,4.0,7.0,79,0.00,,SCT045,0.00,0.00,VWS V15.00,2017-10-21 14:35:00,
2017-10-22 01:06:00,52.8,46.5,30.26,SSE,166,4.0,4.0,79,0.00,,SCT045,0.00,0.00,VWS V15.00,2017-10-21 14:36:00,
2017-10-22 01:07:00,52.7,46.4,30.26,SE,143,5.0,6.0,79,0.00,,SCT045,0.00,0.00,VWS V15.00,2017-10-21 14:37:00,
2017-10-22 01:08:00,52.7,46.4,30.26,SSE,155,4.0,6.0,79,0.00,,SCT045,0.00,0.00,VWS V15.00,2017-10-21 14:38:00,
2017-10-22 01:09:00,52.7,46.4,30.26,SSE,157,5.0,6.0,79,0.00,,SCT045,0.00,0.00,VWS V15.00,2017-10-21 14:39:00,
2017-10-22 01:10:00,52.7,46.4,30.26,South,169,5.0,6.0,79,0.00,,SCT045,0.00,0.00,VWS V15.00,2017-10-21 14:40:00,
2017-10-22 01:11:00,52.8,46.5,30.26,South,169,5.0,7.0,79,0.00,,SCT045,0.00,0.00,VWS V15.00,2017-10-21 14:41:00,
2017-10-22 01:12:00,52.8,46.5,30.26,SSE,167,4.0,7.0,79,0.00,,SCT045,0.00,0.00,VWS V15.00,2017-10-21 14:42:00,
2017-10-22 01:13:00,52.8,46.5,30.26,SSE,167,2.0,7.0,79,0.00,,SCT045,0.00,0.00,VWS V15.00,2017-10-21 14:43:00,
2017-10-22 01:14:00,52.8,46.5,30.26,SW,232,5.0,8.0,79,0.00,,SCT045,0.00,0.00,VWS V15.00,2017-10-21 14:44:00,
2017-10-22 01:15:00,52.8,46.5,30.26,SW,219,4.0,8.0,79,0.00,,SCT045,0.00,0.00,VWS V15.00,2017-10-21 14:45:00,
2017-10-22 01:16:00,52.8,46.5,30.26,SW,219,3.0,4.0,79,0.00,,SCT045,0.00,0.00,VWS V15.00,2017-10-21 14:46:00,
2017-10-22 01:17:00,52.7,46.4,30.26,SW,229,4.0,5.0,79,0.00,,SCT045,0.00,0.00,VWS V15.00,2017-10-21 14:47:00,
2017-10-22 01:18:00,52.8,46.5,30.26,SW,221,5.0,7.0,79,0.00,,SCT045,0.00,0.00,VWS V15.00,2017-10-21 14:48:00,
2017-10-22 01:19:00,52.7,46.4,30.26,SSW,198,4.0,7.0,79,0.00,,SCT045,0.00,0.00,VWS V15.00,2017-10-21 14:49:00,
2017-10-22 01:20:00,52.7,46.4,30.25,WSW,240,3.0,8.0,79,0.00,,SCT045,0.00,0.00,VWS V15.00,2017-10-21 14:50:00,
2017-10-22 01:21:00,52.7,46.4,30.26,SW,233,4.0,8.0,79,0.00,,SCT045,0.00,0.00,VWS V15.00,2017-10-21 14:51:00,
2017-10-22 01:22:00,52.7,46.7,30.25,SSW,199,4.0,8.0,80,0.00,,SCT045,0.00,0.00,VWS V15.00,2017-10-21 14:52:00,
2017-10-22 01:23:00,52.7,46.7,30.25,SSW,193,2.0,8.0,80,0.00,,SCT045,0.00,0.00,VWS V15.00,2017-10-21 14:53:00,
2017-10-22 01:24:00,52.7,46.7,30.25,SW,225,4.0,8.0,80,0.00,,SCT045,0.00,0.00,VWS V15.00,2017-10-21 14:54:00,
2017-10-22 01:25:00,52.7,46.7,30.25,WSW,238,2.0,8.0,80,0.00,,SCT045,0.00,0.00,VWS V15.00,2017-10-21 14:55:00,
2017-10-22 01:26:00,52.6,46.6,30.25,SSW,211,5.0,5.0,80,0.00,,SCT045,0.00,0.00,VWS V15.00,2017-10-21 14:56:00,
2017-10-22 01:27:00,52.6,46.6,30.25,South,189,5.0,7.0,80,0.00,,SCT045,0.00,0.00,VWS V15.00,2017-10-21 14:57:00,
2017-10-22 01:28:00,52.6,46.6,30.25,SSW,210,1.0,7.0,80,0.00,,SCT045,0.00,0.00,VWS V15.00,2017-10-21 14:58:00,
2017-10-22 01:29:00,52.6,46.6,30.25,SSW,210,1.0,7.0,80,0.00,,SCT045,0.00,0.00,VWS V15.00,2017-10-21 14:59:00,
2017-10-22 01:30:00,52.6,46.6,30.25,SSW,210,0.0,7.0,80,0.00,,SCT045,0.00,0.00,VWS V15.00,2017-10-21 15:00:00,
2017-10-22 01:31:00,52.5,46.5,30.25,SSW,205,1.0,5.0,80,0.00,,SCT045,0.00,0.00,VWS V15.00,2017-10-21 15:01:00,
2017-10-22 01:32:00,52.5,46.5,30.25,SSW,205,3.0,5.0,80,0.00,,SCT045,0.00,0.00,VWS V15.00,2017-10-21 15:02:00,
2017-10-22 01:33:00,52.5,46.5,30.25,South,178,4.0,5.0,80,0.00,,SCT045,0.00,0.00,VWS V15.00,2017-10-21 15:03:00,
2017-10-22 01:34:00,52.5,46.5,30.25,South,178,1.0,5.0,80,0.00,,SCT045,0.00,0.00,VWS V15.00,2017-10-21 15:04:00,
2017-10-22 01:35:00,52.4,46.4,30.25,South,178,4.0,5.0,80,0.00,,SCT045,0.00,0.00,VWS V15.00,2017-10-21 15:05:00,
2017-10-22 01:36:00,52.4,46.4,30.25,South,178,4.0,6.0,80,0.00,,SCT045,0.00,0.00,VWS V15.00,2017-10-21 15:06:00,
2017-10-22 01:37:00,52.4,46.4,30.25,South,178,4.0,6.0,80,0.00,,SCT045,0.00,0.00,VWS V15.00,2017-10-21 15:07:00,
2017-10-22 01:38:00,52.4,46.4,30.25,South,182,3.0,6.0,80,0.00,,SCT045,0.00,0.00,VWS V15.00,2017-10-21 15:08:00,
2017-10-22 01:39:00,52.4,46.4,30.25,South,182,2.0,6.0,80,0.00,,SCT045,0.00,0.00,VWS V15.00,2017-10-21 15:09:00,
2017-10-22 01:40:00,52.3,46.3,30.25,South,182,0.0,6.0,80,0.00,,SCT045,0.00,0.00,VWS V15.00,2017-10-21 15:10:00,
2017-10-22 01:41:00,52.3,46.3,30.25,South,183,4.0,4.0,80,0.00,,SCT045,0.00,0.00,VWS V15.00,2017-10-21 15:11:00,
2017-10-22 01:42:00,52.3,46.3,30.25,South,184,3.0,4.0,80,0.00,,SCT045,0.00,0.00,VWS V15.00,2017-10-21 15:12:00,
2017-10-22 01:43:00,52.3,46.3,30.25,South,184,2.0,4.0,80,0.00,,SCT045,0.00,0.00,VWS V15.00,2017-10-21 15:13:00,
2017-10-22 01:44:00,52.3,46.7,30.25,South,184,2.0,4.0,81,0.00,,SCT045,0.00,0.00,VWS V15.00,2017-10-21 15:14:00,
2017-10-22 01:45:00,52.2,46.5,30.25,South,184,0.0,4.0,81,0.00,,SCT045,0.00,0.00,VWS V15.00,2017-10-21 15:15:00,
2017-10-22 01:46:00,52.2,46.5,30.25,South,184,0.0,2.0,81,0.00,,SCT045,0.00,0.00,VWS V15.00,2017-10-21 15:16:00,
2017-10-22 01:47:00,52.2,46.5,30.25,South,184,2.0,2.0,81,0.00,,SCT045,0.00,0.00,VWS V15.00,2017-10-21 15:17:00,
2017-10-22 01:48:00,52.2,46.5,30.25,South,185,3.0,3.0,81,0.00,,SCT045,0.00,0.00,VWS V15.00,2017-10-21 15:18:00,
2017-10-22 01:49:00,52.1,46.5,30.25,South,184,1.0,3.0,81,0.00,,SCT045,0.00,0.00,VWS V15.00,2017-10-21 15:19:00,
2017-10-22 01:50:00,52.1,46.5,30.25,South,184,1.0,3.0,81,0.00,,SCT045,0.00,0.00,VWS V15.00,2017-10-21 15:20:00,
2017-10-22 01:51:00,52.1,46.5,30.25,South,185,1.0,2.0,81,0.00,,SCT045,0.00,0.00,VWS V15.00,2017-10-21 15:21:00,
2017-10-22 01:52:00,52.1,46.5,30.25,South,184,2.0,2.0,81,0.00,,SCT045,0.00,0.00,VWS V15.00,2017-10-21 15:22:00,
2017-10-22 01:53:00,52.1,46.5,30.25,South,185,1.0,4.0,81,0.00,,SCT045,0.00,0.00,VWS V15.00,2017-10-21 15:23:00,
2017-10-22 01:54:00,52.1,46.5,30.25,South,185,1.0,4.0,81,0.00,,SCT045,0.00,0.00,VWS V15.00,2017-10-21 15:24:00,
2017-10-22 01:55:00,52.0,46.4,30.25,South,184,2.0,2.0,81,0.00,,SCT045,0.00,0.00,VWS V15.00,2017-10-21 15:25:00,
2017-10-22 01:56:00,52.0,46.4,30.25,South,184,2.0,2.0,81,0.00,,SCT045,0.00,0.00,VWS V15.00,2017-10-21 15:26:00,
2017-10-22 01:57:00,52.0,46.4,30.25,South,182,1.0,3.0,81,0.00,,SCT045,0.00,0.00,VWS V15.00,2017-10-21 15:27:00,
2017-10-22 01:58:00,51.9,46.3,30.25,South,183,1.0,3.0,81,0.00,,SCT045,0.00,0.00,VWS V15.00,2017-10-21 15:28:00,
2017-10-22 01:59:00,51.9,46.3,30.25,South,182,0.0,3.0,81,0.00,,SCT045,0.00,0.00,VWS V15.00,2017-10-21 15:29:00,
2017-10-22 02:00:00,51.9,46.3,30.25,South,183,2.0,3.0,81,0.00,,SCT045,0.00,0.00,VWS V15.00,2017-10-21 15:30:00,
2017-10-22 02:01:00,51.9,46.3,30.25,South,182,2.0,3.0,81,0.00,,SCT045,0.00,0.00,VWS V15.00,2017-10-21 15:31:00,
2017-10-22 02:02:00,51.9,46.3,30.24,South,184,3.0,3.0,81,0.00,,SCT045,0.00,0.00,VWS V15.00,2017-10-21 15:32:00,
2017-10-22 02:03:00,51.9,46.3,30.25,South,184,1.0,3.0,81,0.00,,SCT045,0.00,0.00,VWS V15.00,2017-10-21 15:33:00,
2017-10-22 02:04:00,51.8,46.2,30.24,South,184,1.0,3.0,81,0.00,,SCT045,0.00,0.00,VWS V15.00,2017-10-21 15:34:00,
2017-10-22 02:05:00,51.8,46.2,30.24,South,184,0.0,3.0,81,0.00,,SCT045,0.00,0.00,VWS V15.00,2017-10-21 15:35:00,
2017-10-22 02:06:00,51.8,46.2,30.25,South,183,1.0,2.0,81,0.00,,SCT045,0.00,0.00,VWS V15.00,2017-10-21 15:36:00,
2017-10-22 02:07:00,51.8,46.2,30.24,South,183,2.0,2.0,81,0.00,,SCT045,0.00,0.00,VWS V15.00,2017-10-21 15:37:00,
2017-10-22 02:08:00,51.7,46.4,30.24,South,182,2.0,3.0,82,0.00,,SCT045,0.00,0.00,VWS V15.00,2017-10-21 15:38:00,
2017-10-22 02:09:00,51.7,46.4,30.24,South,182,2.0,4.0,82,0.00,,SCT045,0.00,0.00,VWS V15.00,2017-10-21 15:39:00,
2017-10-22 02:10:00,51.7,46.4,30.24,South,182,2.0,4.0,82,0.00,,SCT045,0.00,0.00,VWS V15.00,2017-10-21 15:40:00,
2017-10-22 02:11:00,51.7,46.4,30.24,South,181,2.0,3.0,82,0.00,,SCT045,0.00,0.00,VWS V15.00,2017-10-21 15:41:00,
2017-10-22 02:12:00,51.7,46.4,30.24,South,180,2.0,3.0,82,0.00,,SCT045,0.00,0.00,VWS V15.00,2017-10-21 15:42:00,
2017-10-22 02:13:00,51.7,46.4,30.24,South,180,2.0,3.0,82,0.00,,SCT045,0.00,0.00,VWS V15.00,2017-10-21 15:43:00,
2017-10-22 02:14:00,51.7,46.4,30.24,South,180,2.0,3.0,82,0.00,,SCT045,0.00,0.00,VWS V15.00,2017-10-21 15:44:00,
2017-10-22 02:15:00,51.7,46.4,30.24,SSE,161,1.0,5.0,82,0.00,,SCT045,0.00,0.00,VWS V15.00,2017-10-21 15:45:00,
2017-10-22 02:16:00,51.7,46.4,30.24,SSE,161,2.0,4.0,82,0.00,,SCT045,0.00,0.00,VWS V15.00,2017-10-21 15:46:00,
2017-10-22 02:17:00,51.7,46.4,30.24,SSE,162,1.0,4.0,82,0.00,,SCT045,0.00,0.00,VWS V15.00,2017-10-21 15:47:00,
2017-10-22 02:18:00,51.7,46.4,30.24,SSE,162,2.0,4.0,82,0.00,,SCT045,0.00,0.00,VWS V15.00,2017-10-21 15:48:00,
2017-10-22 02:19:00,51.6,46.3,30.24,SSE,162,0.0,4.0,82,0.00,,SCT045,0.00,0.00,VWS V15.00,2017-10-21 15:49:00,
2017-10-22 02:20:00,51.6,46.3,30.24,SSE,162,0.0,4.0,82,0.00,,SCT045,0.00,0.00,VWS V15.00,2017-10-21 15:50:00,
2017-10-22 02:21:00,51.6,46.3,30.24,SSE,163,4.0,4.0,82,0.00,,SCT045,0.00,0.00,VWS V15.00,2017-10-21 15:51:00,
2017-10-22 02:22:00,51.6,46.3,30.24,SSE,163,2.0,4.0,82,0.00,,SCT045,0.00,0.00,VWS V15.00,2017-10-21 15:52:00,
2017-10-22 02:23:00,51.6,46.3,30.24,SSE,163,5.0,5.0,82,0.00,,SCT045,0.00,0.00,VWS V15.00,2017-10-21 15:53:00,
2017-10-22 02:24:00,51.6,46.3,30.24,SSE,163,2.0,5.0,82,0.00,,SCT045,0.00,0.00,VWS V15.00,2017-10-21 15:54:00,
2017-10-22 02:25:00,51.6,46.3,30.24,SSE,163,1.0,5.0,82,0.00,,SCT045,0.00,0.00,VWS V15.00,2017-10-21 15:55:00,
2017-10-22 02:26:00,51.6,46.3,30.24,SSE,164,1.0,2.0,82,0.00,,SCT045,0.00,0.00,VWS V15.00,2017-10-21 15:56:00,
2017-10-22 02:27:00,51.6,46.3,30.24,SSE,165,1.0,4.0,82,0.00,,SCT045,0.00,0.00,VWS V15.00,2017-10-21 15:57:00,
2017-10-22 02:28:00,51.6,46.3,30.24,SSE,164,1.0,4.0,82,0.00,,SCT045,0.00,0.00,VWS V15.00,2017-10-21 15:58:00,
2017-10-22 02:29:00,51.5,46.2,30.24,SSE,165,1.0,6.0,82,0.00,,SCT045,0.00,0.00,VWS V15.00,2017-10-21 15:59:00,
2017-10-22 02:30:00,51.5,46.2,30.24,SSE,165,2.0,6.0,82,0.00,,SCT045,0.00,0.00,VWS V15.00,2017-10-21 16:00:00,
2017-10-22 02:31:00,51.5,46.2,30.24,SSE,165,2.0,2.0,82,0.00,,SCT045,0.00,0.00,VWS V15.00,2017-10-21 16:01:00,
2017-10-22 02:32:00,51.5,46.2,30.24,SSE,158,4.0,5.0,82,0.00,,SCT045,0.00,0.00,VWS V15.00,2017-10-21 16:02:00,
2017-10-22 02:33:00,51.5,46.2,30.23,SSW,192,4.0,6.0,82,0.00,,SCT045,0.00,0.00,VWS V15.00,2017-10-21 16:03:00,
2017-10-22 02:34:00,51.5,46.2,30.23,South,171,5.0,6.0,82,0.00,,SCT045,0.00,0.00,VWS V15.00,2017-10-21 16:04:00,
2017-10-22 02:35:00,51.5,46.2,30.24,South,171,2.0,6.0,82,0.00,,SCT045,0.00,0.00,VWS V15.00,2017-10-21 16:05:00,
2017-10-22 02:36:00,51.5,46.5,30.24,South,170,6.0,6.0,83,0.00,,SCT045,0.00,0.00,VWS V15.00,2017-10-21 16:06:00,
2017-10-22 02:37:00,51.5,46.5,30.23,SSE,163,6.0,6.0,83,0.00,,SCT045,0.00,0.00,VWS V15.00,2017-10-21 16:07:00,
2017-10-22 02:38:00,51.5,46.5,30.23,SSE,158,5.0,6.0,83,0.00,,SCT045,0.00,0.00,VWS V15.00,2017-10-21 16:08:00,
2017-10-22 02:39:00,51.5,46.5,30.23,SSE,159,1.0,6.0,83,0.00,,SCT045,0.00,0.00,VWS V15.00,2017-10-21 16:09:00,
2017-10-22 02:40:00,51.6,46.6,30.23,South,182,3.0,7.0,83,0.00,,SCT045,0.00,0.00,VWS V15.00,2017-10-21 16:10:00,
2017-10-22 02:41:00,51.7,46.7,30.23,SSE,168,5.0,8.0,83,0.00,,SCT045,0.00,0.00,VWS V15.00,2017-10-21 16:11:00,
2017-10-22 02:42:00,51.7,46.7,30.23,South,171,4.0,8.0,83,0.00,,SCT045,0.00,0.00,VWS V15.00,2017-10-21 16:12:00,
2017-10-22 02:43:00,51.7,46.7,30.23,SSE,165,6.0,8.0,83,0.00,,SCT045,0.00,0.00,VWS V15.00,2017-10-21 16:13:00,
2017-10-22 02:44:00,51.7,46.7,30.23,SSE,165,5.0,8.0,83,0.00,,SCT045,0.00,0.00,VWS V15.00,2017-10-21 16:14:00,
2017-10-22 02:45:00,51.7,46.7,30.23,SSE,155,5.0,8.0,83,0.00,,SCT045,0.00,0.00,VWS V15.00,2017-10-21 16:15:00,
2017-10-22 02:46:00,51.7,46.7,30.23,SSE,154,5.0,6.0,83,0.00,,SCT045,0.00,0.00,VWS V15.00,2017-10-21 16:16:00,
2017-10-22 02:47:00,51.7,46.7,30.23,SSE,160,6.0,6.0,83,0.00,,SCT045,0.00,0.00,VWS V15.00,2017-10-21 16:17:00,
2017-10-22 02:48:00,51.8,46.8,30.23,South,186,3.0,7.0,83,0.00,,SCT045,0.00,0.00,VWS V15.00,2017-10-21 16:18:00,
2017-10-22 02:49:00,51.8,46.8,30.23,South,178,6.0,8.0,83,0.00,,SCT045,0.00,0.00,VWS V15.00,2017-10-21 16:19:00,
2017-10-22 02:50:00,51.8,46.8,30.23,SSE,159,6.0,8.0,83,0.00,,SCT045,0.00,0.00,VWS V15.00,2017-10-21 16:20:00,
2017-10-22 02:51:00,51.8,46.8,30.23,SSE,166,7.0,9.0,83,0.00,,SCT045,0.00,0.00,VWS V15.00,2017-10-21 16:21:00,
2017-10-22 02:52:00,51.8,46.8,30.23,SSE,159,4.0,9.0,83,0.00,,SCT045,0.00,0.00,VWS V15.00,2017-10-21 16:22:00,
2017-10-22 02:53:00,51.9,46.9,30.23,SSE,158,7.0,9.0,83,0.00,,SCT045,0.00,0.00,VWS V15.00,2017-10-21 16:23:00,
2017-10-22 02:54:00,51.9,46.9,30.23,SSE,155,6.0,9.0,83,0.00,,SCT045,0.00,0.00,VWS V15.00,2017-10-21 16:24:00,
2017-10-22 02:55:00,51.9,46.9,30.23,SSE,161,5.0,9.0,83,0.00,,SCT045,0.00,0.00,VWS V15.00,2017-10-21 16:25:00,
2017-10-22 02:56:00,51.9,46.9,30.23,SSE,152,5.0,6.0,83,0.00,,SCT045,0.00,0.00,VWS V15.00,2017-10-21 16:26:00,
2017-10-22 02:57:00,51.9,46.9,30.23,South,173,6.0,7.0,83,0.00,,SCT045,0.00,0.00,VWS V15.00,2017-10-21 16:27:00,
2017-10-22 02:58:00,51.9,46.9,30.23,SSE,163,4.0,7.0,83,0.00,,SCT045,0.00,0.00,VWS V15.00,2017-10-21 16:28:00,
2017-10-22 02:59:00,51.9,46.9,30.23,SSE,158,7.0,7.0,83,0.00,,SCT045,0.00,0.00,VWS V15.00,2017-10-21 16:29:00,
2017-10-22 03:00:00,51.9,46.9,30.23,SSE,166,7.0,7.0,83,0.00,,SCT045,0.00,0.00,VWS V15.00,2017-10-21 16:30:00,
2017-10-22 03:01:00,52.0,47.0,30.23,SE,140,4.0,7.0,83,0.00,,SCT045,0.00,0.00,VWS V15.00,2017-10-21 16:31:00,
2017-10-22 03:02:00,52.0,47.0,30.23,SSE,149,4.0,7.0,83,0.00,,SCT045,0.00,0.00,VWS V15.00,2017-10-21 16:32:00,
2017-10-22 03:03:00,52.0,47.0,30.23,SSE,161,4.0,7.0,83,0.00,,SCT045,0.00,0.00,VWS V15.00,2017-10-21 16:33:00,
2017-10-22 03:04:00,52.0,47.0,30.23,SSE,163,4.0,7.0,83,0.00,,SCT045,0.00,0.00,VWS V15.00,2017-10-21 16:34:00,
2017-10-22 03:05:00,52.0,47.0,30.23,SSE,160,4.0,7.0,83,0.00,,SCT045,0.00,0.00,VWS V15.00,2017-10-21 16:35:00,
2017-10-22 03:06:00,52.0,47.0,30.23,South,172,4.0,6.0,83,0.00,,SCT045,0.00,0.00,VWS V15.00,2017-10-21 16:36:00,
2017-10-22 03:07:00,52.1,47.1,30.23,SSE,157,2.0,6.0,83,0.00,,SCT045,0.00,0.00,VWS V15.00,2017-10-21 16:37:00,
2017-10-22 03:08:00,52.1,47.1,30.23,SSE,155,8.0,8.0,83,0.00,,SCT045,0.00,0.00,VWS V15.00,2017-10-21 16:38:00,
2017-10-22 03:09:00,52.1,47.1,30.23,SSE,163,4.0,8.0,83,0.00,,SCT045,0.00,0.00,VWS V15.00,2017-10-21 16:39:00,
2017-10-22 03:10:00,52.1,47.1,30.23,South,175,5.0,8.0,83,0.00,,SCT045,0.00,0.00,VWS V15.00,2017-10-21 16:40:00,
2017-10-22 03:11:00,52.1,47.1,30.23,South,184,3.0,5.0,83,0.00,,SCT045,0.00,0.00,VWS V15.00,2017-10-21 16:41:00,
2017-10-22 03:12:00,52.2,47.2,30.23,SSW,203,2.0,6.0,83,0.00,,SCT045,0.00,0.00,VWS V15.00,2017-10-21 16:42:00,
2017-10-22 03:13:00,52.2,47.2,30.23,South,180,2.0,6.0,83,0.00,,SCT045,0.00,0.00,VWS V15.00,2017-10-21 16:43:00,
2017-10-22 03:14:00,52.2,47.2,30.23,SE,144,4.0,6.0,83,0.00,,SCT045,0.00,0.00,VWS V15.00,2017-10-21 16:44:00,
2017-10-22 03:15:00,52.2,47.2,30.23,SSE,165,5.0,8.0,83,0.00,,SCT045,0.00,0.00,VWS V15.00,2017-10-21 16:45:00,
2017-10-22 03:16:00,52.3,47.3,30.23,South,190,3.0,6.0,83,0.00,,SCT045,0.00,0.00,VWS V15.00,2017-10-21 16:46:00,
2017-10-22 03:17:00,52.3,47.0,30.23,SW,214,3.0,6.0,82,0.00,,SCT045,0.00,0.00,VWS V15.00,2017-10-21 16:47:00,
2017-10-22 03:18:00,52.3,47.0,30.23,South,171,12.0,12.0,82,0.00,,SCT045,0.00,0.00,VWS V15.00,2017-10-21 16:48:00,
2017-10-22 03:19:00,52.3,47.0,30.23,SSW,193,7.0,12.0,82,0.00,,SCT045,0.00,0.00,VWS V15.00,2017-10-21 16:49:00,
2017-10-22 03:20:00,52.3,47.0,30.23,South,171,8.0,8.0,82,0.00,,SCT045,0.00,0.00,VWS V15.00,2017-10-21 16:50:00,
2017-10-22 03:21:00,52.4,47.1,30.23,South,188,3.0,10.0,82,0.00,,SCT045,0.00,0.00,VWS V15.00,2017-10-21 16:51:00,
2017-10-22 03:22:00,52.4,47.1,30.23,South,173,6.0,10.0,82,0.00,,SCT045,0.00,0.00,VWS V15.00,2017-10-21 16:52:00,
2017-10-22 03:24:00,32.0,32.0,0.00,North,0,0.0,0.0,0,0.00,,SCT045,0.00,0.00,VWS V15.00,2017-10-21 16:54:00,
2017-10-22 03:25:00,52.4,47.1,30.23,SSE,163,5.0,5.0,82,0.00,,SCT045,0.00,0.00,VWS V15.00,2017-10-21 16:55:00,
2017-10-22 03:26:00,52.4,47.1,30.23,SSE,158,6.0,8.0,82,0.00,,SCT045,0.00,0.00,VWS V15.00,2017-10-21 16:56:00,
2017-10-22 03:27:00,52.5,47.2,30.23,South,169,8.0,10.0,82,0.00,,SCT045,0.00,0.00,VWS V15.00,2017-10-21 16:57:00,
2017-10-22 03:29:00,52.5,47.2,30.23,South,182,6.0,10.0,82,0.00,,SCT045,0.00,0.00,VWS V15.00,2017-10-21 16:59:00,
2017-10-22 03:30:00,52.5,47.2,30.23,SSE,148,9.0,10.0,82,0.00,,SCT045,0.00,0.00,VWS V15.00,2017-10-21 17:00:00,
2017-10-22 03:31:00,52.5,47.2,30.23,SSE,158,9.0,9.0,82,0.00,,SCT045,0.00,0.00,VWS V15.00,2017-10-21 17:01:00,
2017-10-22 03:32:00,52.5,47.2,30.23,SSE,157,2.0,9.0,82,0.00,,SCT045,0.00,0.00,VWS V15.00,2017-10-21 17:02:00,
2017-10-22 03:33:00,52.5,47.2,30.23,SSE,167,5.0,9.0,82,0.00,,SCT045,0.00,0.00,VWS V15.00,2017-10-21 17:03:00,
2017-10-22 03:34:00,52.5,47.2,30.23,SSE,166,5.0,9.0,82,0.00,,SCT045,0.00,0.00,VWS V15.00,2017-10-21 17:04:00,
2017-10-22 03:35:00,52.5,47.2,30.23,SSE,167,5.0,9.0,82,0.00,,SCT045,0.00,0.00,VWS V15.00,2017-10-21 17:05:00,
2017-10-22 03:36:00,52.5,47.2,30.23,SSE,167,4.0,5.0,82,0.00,,SCT045,0.00,0.00,VWS V15.00,2017-10-21 17:06:00,
2017-10-22 03:37:00,52.5,47.2,30.22,SSE,150,5.0,5.0,82,0.00,,SCT045,0.00,0.00,VWS V15.00,2017-10-21 17:07:00,
2017-10-22 03:38:00,52.5,47.2,30.22,SE,144,5.0,6.0,82,0.00,,SCT045,0.00,0.00,VWS V15.00,2017-10-21 17:08:00,
2017-10-22 03:39:00,52.5,47.2,30.22,SSE,150,5.0,6.0,82,0.00,,SCT045,0.00,0.00,VWS V15.00,2017-10-21 17:09:00,
2017-10-22 03:40:00,52.5,47.2,30.23,SSE,153,2.0,6.0,82,0.00,,SCT045,0.00,0.00,VWS V15.00,2017-10-21 17:10:00,
2017-10-22 03:41:00,52.5,47.2,30.22,SE,132,5.0,7.0,82,0.00,,SCT045,0.00,0.00,VWS V15.00,2017-10-21 17:11:00,
2017-10-22 03:42:00,52.5,47.2,30.22,SE,138,6.0,7.0,82,0.00,,SCT045,0.00,0.00,VWS V15.00,2017-10-21 17:12:00,
2017-10-22 03:43:00,52.4,47.1,30.22,South,169,5.0,7.0,82,0.00,,SCT045,0.00,0.00,VWS V15.00,2017-10-21 17:13:00,
2017-10-22 03:44:00,52.5,47.2,30.22,South,172,2.0,7.0,82,0.00,,SCT045,0.00,0.00,VWS V15.00,2017-10-21 17:14:00,
2017-10-22 03:45:00,52.4,47.1,30.22,SSE,168,5.0,7.0,82,0.00,,SCT045,0.00,0.00,VWS V15.00,2017-10-21 17:15:00,
2017-10-22 03:46:00,52.5,47.2,30.23,SSE,168,4.0,6.0,82,0.00,,SCT045,0.00,0.00,VWS V15.00,2017-10-21 17:16:00,
2017-10-22 03:47:00,52.5,47.2,30.22,South,188,3.0,6.0,82,0.00,,SCT045,0.00,0.00,VWS V15.00,2017-10-21 17:17:00,
2017-10-22 03:48:00,52.4,47.1,30.22,SSE,165,5.0,7.0,82,0.00,,SCT045,0.00,0.00,VWS V15.00,2017-10-21 17:18:00,
2017-10-22 03:49:00,52.5,47.2,30.22,SSE,165,2.0,7.0,82,0.00,,SCT045,0.00,0.00,VWS V15.00,2017-10-21 17:19:00,
2017-10-22 03:50:00,52.4,47.1,30.22,SSE,165,5.0,7.0,82,0.00,,SCT045,0.00,0.00,VWS V15.00,2017-10-21 17:20:00,
2017-10-22 03:51:00,52.4,47.1,30.22,SSE,148,4.0,5.0,82,0.00,,SCT045,0.00,0.00,VWS V15.00,2017-10-21 17:21:00,
2017-10-22 03:52:00,52.4,46.8,30.22,SSE,153,6.0,6.0,81,0.00,,SCT045,0.00,0.00,VWS V15.00,2017-10-21 17:22:00,
2017-10-22 03:53:00,52.4,46.8,30.22,SSE,158,6.0,7.0,81,0.00,,SCT045,0.00,0.00,VWS V15.00,2017-10-21 17:23:00,
2017-10-22 03:54:00,52.4,46.8,30.22,SSE,167,6.0,7.0,81,0.00,,SCT045,0.00,0.00,VWS V15.00,2017-10-21 17:24:00,
2017-10-22 03:55:00,52.3,47.0,30.22,SSE,153,4.0,7.0,82,0.00,,SCT045,0.00,0.00,VWS V15.00,2017-10-21 17:25:00,
2017-10-22 03:56:00,52.3,47.0,30.22,SSE,157,4.0,5.0,82,0.00,,SCT045,0.00,0.00,VWS V15.00,2017-10-21 17:26:00,
2017-10-22 03:57:00,52.3,47.0,30.22,SSE,161,1.0,5.0,82,0.00,,SCT045,0.00,0.00,VWS V15.00,2017-10-21 17:27:00,
2017-10-22 03:58:00,52.3,47.0,30.22,SSE,161,2.0,5.0,82,0.00,,SCT045,0.00,0.00,VWS V15.00,2017-10-21 17:28:00,
2017-10-22 03:59:00,52.3,47.0,30.22,SSE,167,4.0,5.0,82,0.00,,SCT045,0.00,0.00,VWS V15.00,2017-10-21 17:29:00,
2017-10-22 04:00:00,52.3,47.0,30.22,South,169,5.0,5.0,82,0.00,,SCT045,0.00,0.00,VWS V15.00,2017-10-21 17:30:00,
2017-10-22 04:01:00,52.2,46.9,30.22,South,169,4.0,5.0,82,0.00,,SCT045,0.00,0.00,VWS V15.00,2017-10-21 17:31:00,
2017-10-22 04:02:00,52.2,46.5,30.22,South,169,1.0,5.0,81,0.00,,SCT045,0.00,0.00,VWS V15.00,2017-10-21 17:32:00,
2017-10-22 04:03:00,52.2,46.9,30.22,South,171,4.0,5.0,82,0.00,,SCT045,0.00,0.00,VWS V15.00,2017-10-21 17:33:00,
2017-10-22 04:04:00,52.2,46.5,30.22,South,173,1.0,5.0,81,0.00,,SCT045,0.00,0.00,VWS V15.00,2017-10-21 17:34:00,
2017-10-22 04:05:00,52.2,46.9,30.22,South,173,1.0,5.0,82,0.00,,SCT045,0.00,0.00,VWS V15.00,2017-10-21 17:35:00,
2017-10-22 04:06:00,52.2,46.9,30.22,South,172,1.0,4.0,82,0.00,,SCT045,0.00,0.00,VWS V15.00,2017-10-21 17:36:00,
2017-10-22 04:07:00,52.2,46.9,30.22,South,173,0.0,4.0,82,0.00,,SCT045,0.00,0.00,VWS V15.00,2017-10-21 17:37:00,
2017-10-22 04:08:00,52.2,46.9,30.22,South,173,2.0,4.0,82,0.00,,SCT045,0.00,0.00,VWS V15.00,2017-10-21 17:38:00,
2017-10-22 04:09:00,52.2,46.9,30.22,South,173,0.0,4.0,82,0.00,,SCT045,0.00,0.00,VWS V15.00,2017-10-21 17:39:00,
2017-10-22 04:10:00,52.1,46.8,30.22,South,174,1.0,4.0,82,0.00,,SCT045,0.00,0.00,VWS V15.00,2017-10-21 17:40:00,
2017-10-22 04:11:00,52.1,46.8,30.22,South,174,0.0,4.0,82,0.00,,SCT045,0.00,0.00,VWS V15.00,2017-10-21 17:41:00,
2017-10-22 04:12:00,52.1,46.8,30.22,South,174,0.0,4.0,82,0.00,,SCT045,0.00,0.00,VWS V15.00,2017-10-21 17:42:00,
2017-10-22 04:13:00,52.1,46.8,30.22,South,183,2.0,5.0,82,0.00,,SCT045,0.00,0.00,VWS V15.00,2017-10-21 17:43:00,
2017-10-22 04:14:00,52.1,46.8,30.22,South,189,2.0,5.0,82,0.00,,SCT045,0.00,0.00,VWS V15.00,2017-10-21 17:44:00,
2017-10-22 04:15:00,52.1,46.8,30.22,South,188,1.0,5.0,82,0.00,,SCT045,0.00,0.00,VWS V15.00,2017-10-21 17:45:00,
2017-10-22 04:16:00,52.1,46.8,30.22,South,188,2.0,2.0,82,0.00,,SCT045,0.00,0.00,VWS V15.00,2017-10-21 17:46:00,
2017-10-22 04:17:00,52.1,46.8,30.22,SSW,192,2.0,5.0,82,0.00,,SCT045,0.00,0.00,VWS V15.00,2017-10-21 17:47:00,
2017-10-22 04:18:00,52.1,46.8,30.22,South,191,2.0,5.0,82,0.00,,SCT045,0.00,0.00,VWS V15.00,2017-10-21 17:48:00,
2017-10-22 04:19:00,52.1,46.8,30.22,South,191,3.0,5.0,82,0.00,,SCT045,0.00,0.00,VWS V15.00,2017-10-21 17:49:00,
2017-10-22 04:20:00,52.1,46.8,30.22,South,191,2.0,5.0,82,0.00,,SCT045,0.00,0.00,VWS V15.00,2017-10-21 17:50:00,
2017-10-22 04:21:00,52.0,46.7,30.22,SSW,193,2.0,4.0,82,0.00,,SCT045,0.00,0.00,VWS V15.00,2017-10-21 17:51:00,
2017-10-22 04:22:00,52.0,46.7,30.22,SSW,194,1.0,4.0,82,0.00,,SCT045,0.00,0.00,VWS V15.00,2017-10-21 17:52:00,
2017-10-22 04:23:00,52.0,46.7,30.22,SSW,194,2.0,4.0,82,0.00,,SCT045,0.00,0.00,VWS V15.00,2017-10-21 17:53:00,
2017-10-22 04:24:00,52.0,46.7,30.22,SSW,194,1.0,4.0,82,0.00,,SCT045,0.00,0.00,VWS V15.00,2017-10-21 17:54:00,
2017-10-22 04:25:00,52.0,46.7,30.22,SSW,194,1.0,4.0,82,0.00,,SCT045,0.00,0.00,VWS V15.00,2017-10-21 17:55:00,
2017-10-22 04:26:00,52.0,46.7,30.22,SSW,194,3.0,3.0,82,0.00,,SCT045,0.00,0.00,VWS V15.00,2017-10-21 17:56:00,
2017-10-22 04:27:00,52.0,46.7,30.22,SSW,194,2.0,3.0,82,0.00,,SCT045,0.00,0.00,VWS V15.00,2017-10-21 17:57:00,
2017-10-22 04:28:00,52.1,46.8,30.22,SSW,194,1.0,3.0,82,0.00,,SCT045,0.00,0.00,VWS V15.00,2017-10-21 17:58:00,
2017-10-22 04:29:00,52.0,46.7,30.22,SSW,194,1.0,3.0,82,0.00,,SCT045,0.00,0.00,VWS V15.00,2017-10-21 17:59:00,
2017-10-22 04:30:00,52.0,46.7,30.22,SSW,195,3.0,3.0,82,0.00,,SCT045,0.00,0.00,VWS V15.00,2017-10-21 18:00:00,
2017-10-22 04:31:00,52.0,46.7,30.22,SSW,195,2.0,3.0,82,0.00,,SCT045,0.00,0.00,VWS V15.00,2017-10-21 18:01:00,
2017-10-22 04:32:00,52.1,46.8,30.22,SSW,195,1.0,3.0,82,0.00,,SCT045,0.00,0.00,VWS V15.00,2017-10-21 18:02:00,
2017-10-22 04:33:00,52.1,46.8,30.22,SSW,195,0.0,3.0,82,0.00,,SCT045,0.00,0.00,VWS V15.00,2017-10-21 18:03:00,
2017-10-22 04:34:00,52.1,46.8,30.22,SSW,195,0.0,3.0,82,0.00,,SCT045,0.00,0.00,VWS V15.00,2017-10-21 18:04:00,
2017-10-22 04:35:00,52.1,46.8,30.22,SSW,195,0.0,3.0,82,0.00,,SCT045,0.00,0.00,VWS V15.00,2017-10-21 18:05:00,
2017-10-22 04:36:00,52.1,46.8,30.22,SSW,196,1.0,3.0,82,0.00,,SCT045,0.00,0.00,VWS V15.00,2017-10-21 18:06:00,
2017-10-22 04:37:00,52.1,46.8,30.22,SSW,196,0.0,3.0,82,0.00,,SCT045,0.00,0.00,VWS V15.00,2017-10-21 18:07:00,
2017-10-22 04:38:00,52.1,46.8,30.22,SSW,202,2.0,3.0,82,0.00,,SCT045,0.00,0.00,VWS V15.00,2017-10-21 18:08:00,
2017-10-22 04:39:00,52.1,46.8,30.22,SW,221,2.0,5.0,82,0.00,,SCT045,0.00,0.00,VWS V15.00,2017-10-21 18:09:00,
2017-10-22 04:40:00,52.1,46.8,30.22,SW,223,2.0,5.0,82,0.00,,SCT045,0.00,0.00,VWS V15.00,2017-10-21 18:10:00,
2017-10-22 04:41:00,52.2,46.9,30.22,SSW,207,6.0,6.0,82,0.00,,SCT045,0.00,0.00,VWS V15.00,2017-10-21 18:11:00,
2017-10-22 04:42:00,52.2,46.9,30.22,SSW,213,4.0,6.0,82,0.00,,SCT045,0.00,0.00,VWS V15.00,2017-10-21 18:12:00,
2017-10-22 04:43:00,52.2,46.9,30.22,SSW,213,0.0,6.0,82,0.00,,SCT045,0.00,0.00,VWS V15.00,2017-10-21 18:13:00,
2017-10-22 04:44:00,52.2,46.9,30.22,SSW,213,1.0,6.0,82,0.00,,SCT045,0.00,0.00,VWS V15.00,2017-10-21 18:14:00,
2017-10-22 04:45:00,52.2,46.9,30.22,SSW,213,2.0,6.0,82,0.00,,SCT045,0.00,0.00,VWS V15.00,2017-10-21 18:15:00,
2017-10-22 04:46:00,52.2,46.9,30.22,SSW,210,4.0,4.0,82,0.00,,SCT045,0.00,0.00,VWS V15.00,2017-10-21 18:16:00,
2017-10-22 04:47:00,52.2,46.9,30.22,SSW,210,3.0,4.0,82,0.00,,SCT045,0.00,0.00,VWS V15.00,2017-10-21 18:17:00,
2017-10-22 04:48:00,52.2,46.9,30.22,South,180,2.0,4.0,82,0.00,,SCT045,0.00,0.00,VWS V15.00,2017-10-21 18:18:00,
2017-10-22 04:49:00,52.2,46.9,30.22,South,178,2.0,4.0,82,0.00,,SCT045,0.00,0.00,VWS V15.00,2017-10-21 18:19:00,
2017-10-22 04:50:00,52.2,46.9,30.22,South,179,1.0,4.0,82,0.00,,SCT045,0.00,0.00,VWS V15.00,2017-10-21 18:20:00,
2017-10-22 04:51:00,52.2,46.9,30.22,South,178,0.0,2.0,82,0.00,,SCT045,0.00,0.00,VWS V15.00,2017-10-21 18:21:00,
2017-10-22 04:52:00,52.2,46.9,30.22,South,179,1.0,2.0,82,0.00,,SCT045,0.00,0.00,VWS V15.00,2017-10-21 18:22:00,
2017-10-22 04:53:00,52.2,46.9,30.22,South,179,1.0,2.0,82,0.00,,SCT045,0.00,0.00,VWS V15.00,2017-10-21 18:23:00,
2017-10-22 04:54:00,52.2,46.9,30.22,South,179,2.0,2.0,82,0.00,,SCT045,0.00,0.00,VWS V15.00,2017-10-21 18:24:00,
2017-10-22 04:55:00,52.2,46.9,30.22,South,178,2.0,2.0,82,0.00,,SCT045,0.00,0.00,VWS V15.00,2017-10-21 18:25:00,
2017-10-22 04:56:00,52.2,46.9,30.22,South,178,0.0,2.0,82,0.00,,SCT045,0.00,0.00,VWS V15.00,2017-10-21 18:26:00,
2017-10-22 04:57:00,52.3,47.0,30.22,South,179,4.0,4.0,82,0.00,,SCT045,0.00,0.00,VWS V15.00,2017-10-21 18:27:00,
2017-10-22 04:58:00,52.3,47.0,30.22,SW,214,3.0,5.0,82,0.00,,SCT045,0.00,0.00,VWS V15.00,2017-10-21 18:28:00,
2017-10-22 04:59:00,52.3,47.0,30.22,SSW,213,2.0,5.0,82,0.00,,SCT045,0.00,0.00,VWS V15.00,2017-10-21 18:29:00,
2017-10-22 05:00:00,52.3,47.0,30.22,SSW,213,2.0,5.0,82,0.00,,SCT045,0.00,0.00,VWS V15.00,2017-10-21 18:30:00,
2017-10-22 05:01:00,52.3,47.0,30.22,SSW,213,0.0,2.0,82,0.00,,SCT045,0.00,0.00,VWS V15.00,2017-10-21 18:31:00,
2017-10-22 05:02:00,52.3,47.0,30.22,SSW,213,0.0,2.0,82,0.00,,SCT045,0.00,0.00,VWS V15.00,2017-10-21 18:32:00,
2017-10-22 05:03:00,52.3,47.0,30.22,SSW,213,2.0,2.0,82,0.00,,SCT045,0.00,0.00,VWS V15.00,2017-10-21 18:33:00,
2017-10-22 05:04:00,52.3,47.0,30.22,SSW,213,2.0,2.0,82,0.00,,SCT045,0.00,0.00,VWS V15.00,2017-10-21 18:34:00,
2017-10-22 05:05:00,52.3,47.0,30.22,SSW,212,1.0,2.0,82,0.00,,SCT045,0.00,0.00,VWS V15.00,2017-10-21 18:35:00,
2017-10-22 05:06:00,52.3,47.0,30.22,SSW,212,2.0,3.0,82,0.00,,SCT045,0.00,0.00,VWS V15.00,2017-10-21 18:36:00,
2017-10-22 05:07:00,52.4,47.1,30.22,SSW,212,0.0,3.0,82,0.00,,SCT045,0.00,0.00,VWS V15.00,2017-10-21 18:37:00,
2017-10-22 05:08:00,52.4,47.1,30.22,SSW,212,1.0,3.0,82,0.00,,SCT045,0.00,0.00,VWS V15.00,2017-10-21 18:38:00,
2017-10-22 05:09:00,52.4,47.1,30.22,SSW,212,0.0,3.0,82,0.00,,SCT045,0.00,0.00,VWS V15.00,2017-10-21 18:39:00,
2017-10-22 05:10:00,52.4,47.1,30.22,SSW,213,3.0,3.0,82,0.00,,SCT045,0.00,0.00,VWS V15.00,2017-10-21 18:40:00,
2017-10-22 05:11:00,52.4,47.1,30.22,SSW,212,0.0,3.0,82,0.00,,SCT045,0.00,0.00,VWS V15.00,2017-10-21 18:41:00,
2017-10-22 05:12:00,52.4,47.1,30.22,SSW,212,1.0,3.0,82,0.00,,SCT045,0.00,0.00,VWS V15.00,2017-10-21 18:42:00,
2017-10-22 05:13:00,52.4,47.1,30.22,SSW,213,0.0,3.0,82,0.00,,SCT045,0.00,0.00,VWS V15.00,2017-10-21 18:43:00,
2017-10-22 05:14:00,52.4,47.1,30.22,SSW,213,1.0,3.0,82,0.00,,SCT045,0.00,0.00,VWS V15.00,2017-10-21 18:44:00,
2017-10-22 05:15:00,52.5,47.2,30.22,SSW,213,0.0,3.0,82,0.00,,SCT045,0.00,0.00,VWS V15.00,2017-10-21 18:45:00,
2017-10-22 05:16:00,52.4,47.1,30.22,SSW,213,0.0,2.0,82,0.00,,SCT045,0.00,0.00,VWS V15.00,2017-10-21 18:46:00,
2017-10-22 05:17:00,52.4,47.1,30.22,SSW,213,1.0,2.0,82,0.00,,SCT045,0.00,0.00,VWS V15.00,2017-10-21 18:47:00,
2017-10-22 05:18:00,52.5,47.2,30.22,SSW,213,2.0,2.0,82,0.00,,SCT045,0.00,0.00,VWS V15.00,2017-10-21 18:48:00,
2017-10-22 05:19:00,52.5,47.2,30.22,SW,215,3.0,3.0,82,0.00,,SCT045,0.00,0.00,VWS V15.00,2017-10-21 18:49:00,
2017-10-22 05:20:00,52.5,47.2,30.22,SW,215,1.0,3.0,82,0.00,,SCT045,0.00,0.00,VWS V15.00,2017-10-21 18:50:00,
2017-10-22 05:21:00,52.5,47.2,30.22,SW,215,0.0,4.0,82,0.00,,SCT045,0.00,0.00,VWS V15.00,2017-10-21 18:51:00,
2017-10-22 05:22:00,52.5,47.2,30.22,SW,215,0.0,4.0,82,0.00,,SCT045,0.00,0.00,VWS V15.00,2017-10-21 18:52:00,
2017-10-22 05:23:00,52.5,47.2,30.22,WSW,238,2.0,5.0,82,0.00,,SCT045,0.00,0.00,VWS V15.00,2017-10-21 18:53:00,
2017-10-22 05:24:00,52.5,47.2,30.22,WSW,238,1.0,5.0,82,0.00,,SCT045,0.00,0.00,VWS V15.00,2017-10-21 18:54:00,
2017-10-22 05:25:00,52.6,47.3,30.22,WSW,238,0.0,5.0,82,0.00,,SCT045,0.00,0.00,VWS V15.00,2017-10-21 18:55:00,
2017-10-22 05:26:00,52.5,47.2,30.22,SW,236,3.0,3.0,82,0.00,,SCT045,0.00,0.00,VWS V15.00,2017-10-21 18:56:00,
2017-10-22 05:27:00,52.5,47.2,30.22,SW,234,3.0,4.0,82,0.00,,SCT045,0.00,0.00,VWS V15.00,2017-10-21 18:57:00,
2017-10-22 05:28:00,52.6,47.3,30.22,WSW,246,3.0,4.0,82,0.00,,SCT045,0.00,0.00,VWS V15.00,2017-10-21 18:58:00,
2017-10-22 05:29:00,52.6,47.3,30.22,WSW,238,2.0,5.0,82,0.00,,SCT045,0.00,0.00,VWS V15.00,2017-10-21 18:59:00,
2017-10-22 05:30:00,52.6,47.3,30.22,WSW,238,1.0,5.0,82,0.00,,SCT045,0.00,0.00,VWS V15.00,2017-10-21 19:00:00,
2017-10-22 05:31:00,52.6,47.3,30.22,SW,221,3.0,4.0,82,0.00,,SCT045,0.00,0.00,VWS V15.00,2017-10-21 19:01:00,
2017-10-22 05:32:00,52.6,47.3,30.22,SW,220,2.0,4.0,82,0.00,,SCT045,0.00,0.00,VWS V15.00,2017-10-21 19:02:00,
2017-10-22 05:33:00,52.6,47.3,30.22,SW,218,2.0,5.0,82,0.00,,SCT045,0.00,0.00,VWS V15.00,2017-10-21 19:03:00,
2017-10-22 05:34:00,52.6,47.3,30.23,SW,218,1.0,5.0,82,0.00,,SCT045,0.00,0.00,VWS V15.00,2017-10-21 19:04:00,
2017-10-22 05:35:00,52.6,47.3,30.23,SW,218,1.0,5.0,82,0.00,,SCT045,0.00,0.00,VWS V15.00,2017-10-21 19:05:00,
2017-10-22 05:36:00,52.6,46.9,30.23,SW,218,2.0,4.0,81,0.00,,SCT045,0.00,0.00,VWS V15.00,2017-10-21 19:06:00,
2017-10-22 05:37:00,52.6,46.9,30.23,SW,218,1.0,4.0,81,0.00,,SCT045,0.00,0.00,VWS V15.00,2017-10-21 19:07:00,
2017-10-22 05:38:00,52.6,46.9,30.23,WSW,240,1.0,5.0,81,0.00,,SCT045,0.00,0.00,VWS V15.00,2017-10-21 19:08:00,
2017-10-22 05:39:00,52.6,46.9,30.23,WSW,240,0.0,5.0,81,0.00,,SCT045,0.00,0.00,VWS V15.00,2017-10-21 19:09:00,
2017-10-22 05:40:00,52.6,46.9,30.23,WSW,240,0.0,5.0,81,0.00,,SCT045,0.00,0.00,VWS V15.00,2017-10-21 19:10:00,
2017-10-22 05:41:00,52.7,47.0,30.23,WSW,240,1.0,1.0,81,0.00,,SCT045,0.00,0.00,VWS V15.00,2017-10-21 19:11:00,
2017-10-22 05:42:00,52.7,47.0,30.23,SSW,212,1.0,4.0,81,0.00,,SCT045,0.00,0.00,VWS V15.00,2017-10-21 19:12:00,
2017-10-22 05:43:00,52.7,47.0,30.23,SSW,212,1.0,4.0,81,0.00,,SCT045,0.00,0.00,VWS V15.00,2017-10-21 19:13:00,
2017-10-22 05:44:00,52.7,47.0,30.23,SSW,212,1.0,4.0,81,0.00,,SCT045,0.00,5.00,VWS V15.00,2017-10-21 19:14:00,
2017-10-22 05:45:00,52.7,47.0,30.23,SSW,207,2.0,4.0,81,0.00,,SCT045,0.00,5.00,VWS V15.00,2017-10-21 19:15:00,
2017-10-22 05:46:00,52.7,47.0,30.23,SSW,207,0.0,3.0,81,0.00,,SCT045,0.00,7.00,VWS V15.00,2017-10-21 19:16:00,
2017-10-22 05:47:00,52.7,47.0,30.23,SSW,207,3.0,3.0,81,0.00,,SCT045,0.00,7.00,VWS V15.00,2017-10-21 19:17:00,
2017-10-22 05:48:00,52.7,47.0,30.23,SSW,207,1.0,3.0,81,0.00,,SCT045,0.00,9.00,VWS V15.00,2017-10-21 19:18:00,
2017-10-22 05:49:00,52.7,47.0,30.23,SSW,194,5.0,5.0,81,0.00,,SCT045,0.00,9.00,VWS V15.00,2017-10-21 19:19:00,
2017-10-22 05:50:00,52.7,47.0,30.23,South,178,2.0,6.0,81,0.00,,SCT045,0.00,9.00,VWS V15.00,2017-10-21 19:20:00,
2017-10-22 05:51:00,52.8,47.1,30.23,South,180,2.0,3.0,81,0.00,,SCT045,0.00,9.00,VWS V15.00,2017-10-21 19:21:00,
2017-10-22 05:52:00,52.8,47.1,30.23,South,180,1.0,3.0,81,0.00,,SCT045,0.00,11.00,VWS V15.00,2017-10-21 19:22:00,
2017-10-22 05:53:00,52.8,47.1,30.23,South,180,1.0,3.0,81,0.00,,SCT045,0.00,11.00,VWS V15.00,2017-10-21 19:23:00,
2017-10-22 05:54:00,52.8,47.1,30.23,South,180,4.0,5.0,81,0.00,,SCT045,0.00,12.00,VWS V15.00,2017-10-21 19:24:00,
2017-10-22 05:55:00,52.8,47.1,30.23,South,179,4.0,5.0,81,0.00,,SCT045,0.00,12.00,VWS V15.00,2017-10-21 19:25:00,
2017-10-22 05:56:00,52.8,47.1,30.23,South,179,2.0,4.0,81,0.00,,SCT045,0.00,14.00,VWS V15.00,2017-10-21 19:26:00,
2017-10-22 05:57:00,52.8,47.1,30.23,SSE,166,4.0,4.0,81,0.00,,SCT045,0.00,14.00,VWS V15.00,2017-10-21 19:27:00,
2017-10-22 05:58:00,52.8,47.1,30.23,SSE,163,2.0,4.0,81,0.00,,SCT045,0.00,16.00,VWS V15.00,2017-10-21 19:28:00,
2017-10-22 05:59:00,52.9,47.2,30.23,SSE,163,4.0,5.0,81,0.00,,SCT045,0.00,16.00,VWS V15.00,2017-10-21 19:29:00,
2017-10-22 06:00:00,52.9,47.2,30.23,SSE,163,2.0,5.0,81,0.00,,SCT045,0.00,18.00,VWS V15.00,2017-10-21 19:30:00,
2017-10-22 06:01:00,52.9,47.2,30.23,SSE,164,4.0,5.0,81,0.00,,SCT045,0.00,19.00,VWS V15.00,2017-10-21 19:31:00,
2017-10-22 06:02:00,53.0,47.3,30.23,SSE,165,1.0,5.0,81,0.00,,SCT045,0.00,21.00,VWS V15.00,2017-10-21 19:32:00,
2017-10-22 06:03:00,53.0,47.3,30.23,SSE,165,0.0,5.0,81,0.00,,SCT045,0.00,21.00,VWS V15.00,2017-10-21 19:33:00,
2017-10-22 06:04:00,53.0,47.3,30.23,SSE,165,4.0,5.0,81,0.00,,SCT045,0.00,23.00,VWS V15.00,2017-10-21 19:34:00,
2017-10-22 06:05:00,53.0,47.3,30.23,SSE,167,5.0,6.0,81,0.00,,SCT045,0.00,25.00,VWS V15.00,2017-10-21 19:35:00,
2017-10-22 06:06:00,53.0,47.3,30.23,South,169,5.0,6.0,81,0.00,,SCT045,0.00,28.00,VWS V15.00,2017-10-21 19:36:00,
2017-10-22 06:07:00,53.0,47.0,30.23,South,173,2.0,6.0,80,0.00,,SCT045,0.00,33.00,VWS V15.00,2017-10-21 19:37:00,
2017-10-22 06:08:00,53.0,47.0,30.23,South,173,1.0,6.0,80,0.00,,SCT045,0.00,33.00,VWS V15.00,2017-10-21 19:38:00,
2017-10-22 06:09:00,53.1,47.1,30.23,SSW,205,4.0,6.0,80,0.00,,SCT045,0.00,35.00,VWS V15.00,2017-10-21 19:39:00,
2017-10-22 06:10:00,53.1,47.1,30.23,SW,214,3.0,6.0,80,0.00,,SCT045,0.00,35.00,VWS V15.00,2017-10-21 19:40:00,
2017-10-22 06:11:00,53.1,47.1,30.23,SW,217,2.0,5.0,80,0.00,,SCT045,0.00,33.00,VWS V15.00,2017-10-21 19:41:00,
2017-10-22 06:12:00,53.2,47.2,30.23,SW,217,2.0,5.0,80,0.00,,SCT045,0.00,33.00,VWS V15.00,2017-10-21 19:42:00,
2017-10-22 06:13:00,53.2,47.2,30.23,SW,215,2.0,5.0,80,0.00,,SCT045,0.00,35.00,VWS V15.00,2017-10-21 19:43:00,
2017-10-22 06:14:00,53.2,47.2,30.23,SW,215,2.0,5.0,80,0.00,,SCT045,0.00,37.00,VWS V15.00,2017-10-21 19:44:00,
2017-10-22 06:15:00,53.2,47.2,30.23,SW,215,1.0,5.0,80,0.00,,SCT045,0.00,39.00,VWS V15.00,2017-10-21 19:45:00,
2017-10-22 06:16:00,53.3,47.3,30.23,South,178,5.0,7.0,80,0.00,,SCT045,0.00,40.00,VWS V15.00,2017-10-21 19:46:00,
2017-10-22 06:17:00,53.3,47.3,30.23,South,174,2.0,7.0,80,0.00,,SCT045,0.00,42.00,VWS V15.00,2017-10-21 19:47:00,
2017-10-22 06:18:00,53.3,47.3,30.23,SW,220,6.0,7.0,80,0.00,,SCT045,0.00,44.00,VWS V15.00,2017-10-21 19:48:00,
2017-10-22 06:19:00,53.3,47.3,30.23,SSW,194,2.0,7.0,80,0.00,,SCT045,0.00,47.00,VWS V15.00,2017-10-21 19:49:00,
2017-10-22 06:20:00,53.4,47.4,30.23,SSW,194,3.0,7.0,80,0.00,,SCT045,0.00,51.00,VWS V15.00,2017-10-21 19:50:00,
2017-10-22 06:21:00,53.4,47.4,30.23,SSW,194,3.0,3.0,80,0.00,,SCT045,0.00,53.00,VWS V15.00,2017-10-21 19:51:00,
2017-10-22 06:22:00,53.4,47.1,30.23,South,171,4.0,5.0,79,0.00,,SCT045,0.00,54.00,VWS V15.00,2017-10-21 19:52:00,
2017-10-22 06:23:00,53.4,47.1,30.23,SSW,194,1.0,5.0,79,0.00,,SCT045,0.00,56.00,VWS V15.00,2017-10-21 19:53:00,
2017-10-22 06:24:00,53.5,47.2,30.23,South,188,5.0,5.0,79,0.00,,SCT045,0.00,60.00,VWS V15.00,2017-10-21 19:54:00,
2017-10-22 06:25:00,53.5,47.2,30.23,South,178,5.0,5.0,79,0.00,,SCT045,0.00,62.00,VWS V15.00,2017-10-21 19:55:00,
2017-10-22 06:26:00,53.5,47.2,30.23,South,178,2.0,5.0,79,0.00,,SCT045,0.00,62.00,VWS V15.00,2017-10-21 19:56:00,
2017-10-22 06:27:00,53.6,47.3,30.23,South,178,1.0,5.0,79,0.00,,SCT045,0.00,62.00,VWS V15.00,2017-10-21 19:57:00,
2017-10-22 06:28:00,53.6,47.3,30.23,South,178,1.0,5.0,79,0.00,,SCT045,0.00,62.00,VWS V15.00,2017-10-21 19:58:00,
2017-10-22 06:29:00,53.7,47.3,30.23,South,178,2.0,5.0,79,0.00,,SCT045,0.00,63.00,VWS V15.00,2017-10-21 19:59:00,
2017-10-22 06:30:00,53.7,47.3,30.23,South,178,4.0,5.0,79,0.00,,SCT045,0.00,63.00,VWS V15.00,2017-10-21 20:00:00,
2017-10-22 06:31:00,53.7,47.3,30.23,South,177,1.0,4.0,79,0.00,,SCT045,0.00,65.00,VWS V15.00,2017-10-21 20:01:00,
2017-10-22 06:32:00,53.8,47.5,30.23,South,177,1.0,4.0,79,0.00,,SCT045,0.00,67.00,VWS V15.00,2017-10-21 20:02:00,
2017-10-22 06:33:00,53.8,47.5,30.23,South,177,0.0,4.0,79,0.00,,SCT045,0.00,69.00,VWS V15.00,2017-10-21 20:03:00,
2017-10-22 06:34:00,53.8,47.5,30.23,South,178,5.0,5.0,79,0.00,,SCT045,0.00,70.00,VWS V15.00,2017-10-21 20:04:00,
2017-10-22 06:35:00,53.9,47.2,30.23,SSE,166,2.0,5.0,78,0.00,,SCT045,0.00,72.00,VWS V15.00,2017-10-21 20:05:00,
2017-10-22 06:36:00,53.9,47.2,30.23,South,171,2.0,5.0,78,0.00,,SCT045,0.00,74.00,VWS V15.00,2017-10-21 20:06:00,
2017-10-22 06:37:00,53.9,47.2,30.23,South,170,5.0,5.0,78,0.00,,SCT045,0.00,83.00,VWS V15.00,2017-10-21 20:07:00,
2017-10-22 06:38:00,53.9,47.2,30.23,South,169,4.0,5.0,78,0.00,,SCT045,0.00,83.00,VWS V15.00,2017-10-21 20:08:00,
2017-10-22 06:39:00,54.0,47.3,30.23,South,171,4.0,5.0,78,0.00,,SCT045,0.00,95.00,VWS V15.00,2017-10-21 20:09:00,
2017-10-22 06:40:00,54.0,47.3,30.23,South,173,4.0,5.0,78,0.00,,SCT045,0.00,102.00,VWS V15.00,2017-10-21 20:10:00,
2017-10-22 06:41:00,54.0,47.3,30.23,South,173,4.0,6.0,78,0.00,,SCT045,0.00,102.00,VWS V15.00,2017-10-21 20:11:00,
2017-10-22 06:42:00,54.1,47.4,30.23,South,172,4.0,6.0,78,0.00,,SCT045,0.00,120.00,VWS V15.00,2017-10-21 20:12:00,
2017-10-22 06:43:00,54.1,47.4,30.23,South,173,0.0,6.0,78,0.00,,SCT045,0.00,142.00,VWS V15.00,2017-10-21 20:13:00,
2017-10-22 06:44:00,54.1,47.4,30.23,South,180,1.0,6.0,78,0.00,,SCT045,0.00,114.00,VWS V15.00,2017-10-21 20:14:00,
2017-10-22 06:45:00,54.2,47.5,30.23,South,181,3.0,6.0,78,0.00,,SCT045,0.00,123.00,VWS V15.00,2017-10-21 20:15:00,
2017-10-22 06:46:00,54.2,47.5,30.23,South,190,2.0,4.0,78,0.00,,SCT045,0.00,107.00,VWS V15.00,2017-10-21 20:16:00,
2017-10-22 06:47:00,54.3,47.6,30.23,South,190,1.0,4.0,78,0.00,,SCT045,0.00,105.00,VWS V15.00,2017-10-21 20:17:00,
2017-10-22 06:48:00,54.4,47.3,30.23,South,190,2.0,4.0,77,0.00,,SCT045,0.00,105.00,VWS V15.00,2017-10-21 20:18:00,
2017-10-22 06:49:00,54.4,47.3,30.23,SSE,166,4.0,5.0,77,0.00,,SCT045,0.00,105.00,VWS V15.00,2017-10-21 20:19:00,
2017-10-22 06:50:00,54.5,47.5,30.23,South,169,1.0,5.0,77,0.00,,SCT045,0.00,105.00,VWS V15.00,2017-10-21 20:20:00,
2017-10-22 06:51:00,54.5,47.5,30.23,SSE,165,1.0,5.0,77,0.00,,SCT045,0.00,109.00,VWS V15.00,2017-10-21 20:21:00,
2017-10-22 06:52:00,54.6,47.2,30.23,South,175,2.0,5.0,76,0.00,,SCT045,0.00,111.00,VWS V15.00,2017-10-21 20:22:00,
2017-10-22 06:53:00,54.6,47.2,30.23,South,176,2.0,5.0,76,0.00,,SCT045,0.00,109.00,VWS V15.00,2017-10-21 20:23:00,
2017-10-22 06:54:00,54.7,47.3,30.23,SSW,206,3.0,6.0,76,0.00,,SCT045,0.00,109.00,VWS V15.00,2017-10-21 20:24:00,
2017-10-22 06:55:00,54.7,47.3,30.23,SSW,201,3.0,6.0,76,0.00,,SCT045,0.00,109.00,VWS V15.00,2017-10-21 20:25:00,
2017-10-22 06:56:00,54.8,47.4,30.24,SW,217,3.0,5.0,76,0.00,,SCT045,0.00,105.00,VWS V15.00,2017-10-21 20:26:00,
2017-10-22 06:57:00,54.9,47.1,30.24,SSW,209,5.0,6.0,75,0.00,,SCT045,0.00,104.00,VWS V15.00,2017-10-21 20:27:00,
2017-10-22 06:58:00,54.9,47.1,30.24,SSW,211,3.0,6.0,75,0.00,,SCT045,0.00,102.00,VWS V15.00,2017-10-21 20:28:00,
2017-10-22 06:59:00,54.9,47.1,30.24,SSW,211,2.0,6.0,75,0.00,,SCT045,0.00,100.00,VWS V15.00,2017-10-21 20:29:00,
2017-10-22 07:00:00,55.0,47.2,30.24,South,184,3.0,6.0,75,0.00,,SCT045,0.00,98.00,VWS V15.00,2017-10-21 20:30:00,
2017-10-22 07:01:00,55.0,47.2,30.24,South,171,4.0,6.0,75,0.00,,SCT045,0.00,100.00,VWS V15.00,2017-10-21 20:31:00,
2017-10-22 07:02:00,55.0,47.2,30.24,SSW,211,5.0,7.0,75,0.00,,SCT045,0.00,102.00,VWS V15.00,2017-10-21 20:32:00,
2017-10-22 07:03:00,55.1,47.3,30.24,SSW,211,2.0,7.0,75,0.00,,SCT045,0.00,105.00,VWS V15.00,2017-10-21 20:33:00,
2017-10-22 07:04:00,55.1,47.0,30.24,South,191,3.0,7.0,74,0.00,,SCT045,0.00,102.00,VWS V15.00,2017-10-21 20:34:00,
2017-10-22 07:05:00,55.2,47.1,30.24,South,183,3.0,7.0,74,0.00,,SCT045,0.00,100.00,VWS V15.00,2017-10-21 20:35:00,
2017-10-22 07:06:00,55.3,47.2,30.24,South,182,1.0,5.0,74,0.00,,SCT045,0.00,100.00,VWS V15.00,2017-10-21 20:36:00,
2017-10-22 07:07:00,55.3,47.2,30.24,SSE,150,4.0,6.0,74,0.00,,SCT045,0.00,100.00,VWS V15.00,2017-10-21 20:37:00,
2017-10-22 07:08:00,55.3,47.2,30.24,SSE,157,6.0,7.0,74,0.00,,SCT045,0.00,98.00,VWS V15.00,2017-10-21 20:38:00,
2017-10-22 07:09:00,55.3,47.2,30.24,SSE,153,4.0,7.0,74,0.00,,SCT045,0.00,102.00,VWS V15.00,2017-10-21 20:39:00,
2017-10-22 07:10:00,55.4,47.3,30.24,SSE,152,4.0,7.0,74,0.00,,SCT045,0.00,105.00,VWS V15.00,2017-10-21 20:40:00,
2017-10-22 07:11:00,55.4,47.3,30.24,SSE,159,4.0,5.0,74,0.00,,SCT045,0.00,125.00,VWS V15.00,2017-10-21 20:41:00,
2017-10-22 07:12:00,55.4,47.3,30.24,SSE,159,1.0,5.0,74,0.00,,SCT045,0.00,134.00,VWS V15.00,2017-10-21 20:42:00,
2017-10-22 07:13:00,55.5,47.4,30.24,SSE,161,4.0,5.0,74,0.00,,SCT045,0.00,139.00,VWS V15.00,2017-10-21 20:43:00,
2017-10-22 07:14:00,55.5,47.4,30.24,SSE,163,5.0,5.0,74,0.00,,SCT045,0.00,144.00,VWS V15.00,2017-10-21 20:44:00,
2017-10-22 07:15:00,55.6,47.5,30.24,South,175,6.0,7.0,74,0.00,,SCT045,0.00,151.00,VWS V15.00,2017-10-21 20:45:00,
2017-10-22 07:16:00,55.6,47.5,30.24,South,172,6.0,6.0,74,0.00,,SCT045,0.00,160.00,VWS V15.00,2017-10-21 20:46:00,
2017-10-22 07:17:00,55.7,47.2,30.24,South,175,4.0,6.0,73,0.00,,SCT045,0.00,163.00,VWS V15.00,2017-10-21 20:47:00,
2017-10-22 07:18:00,55.8,47.3,30.24,South,175,1.0,6.0,73,0.00,,SCT045,0.00,176.00,VWS V15.00,2017-10-21 20:48:00,
2017-10-22 07:19:00,55.9,47.4,30.24,South,175,1.0,6.0,73,0.00,,SCT045,0.00,197.00,VWS V15.00,2017-10-21 20:49:00,
2017-10-22 07:20:00,56.0,47.5,30.24,SE,135,5.0,7.0,73,0.00,,SCT045,0.00,227.00,VWS V15.00,2017-10-21 20:50:00,
2017-10-22 07:21:00,56.1,47.6,30.24,SE,138,1.0,5.0,73,0.00,,SCT045,0.00,204.00,VWS V15.00,2017-10-21 20:51:00,
2017-10-22 07:22:00,56.2,47.7,30.24,SE,139,2.0,5.0,73,0.00,,SCT045,0.00,209.00,VWS V15.00,2017-10-21 20:52:00,
2017-10-22 07:23:00,56.4,47.9,30.24,South,177,1.0,5.0,73,0.00,,SCT045,0.00,216.00,VWS V15.00,2017-10-21 20:53:00,
2017-10-22 07:24:00,56.5,48.0,30.24,South,175,4.0,5.0,73,0.00,,SCT045,0.00,236.00,VWS V15.00,2017-10-21 20:54:00,
2017-10-22 07:25:00,56.6,48.1,30.24,South,175,4.0,5.0,73,0.00,,SCT045,0.00,220.00,VWS V15.00,2017-10-21 20:55:00,
2017-10-22 07:26:00,56.7,47.8,30.24,South,184,3.0,5.0,72,0.00,,SCT045,0.00,213.00,VWS V15.00,2017-10-21 20:56:00,
2017-10-22 07:27:00,56.8,47.9,30.24,SSE,163,4.0,5.0,72,0.00,,SCT045,0.00,200.00,VWS V15.00,2017-10-21 20:57:00,
2017-10-22 07:28:00,56.9,48.0,30.24,SSE,163,4.0,5.0,72,0.00,,SCT045,0.00,195.00,VWS V15.00,2017-10-21 20:58:00,
2017-10-22 07:29:00,57.0,48.1,30.24,SSE,150,2.0,6.0,72,0.00,,SCT045,0.00,199.00,VWS V15.00,2017-10-21 20:59:00,
2017-10-22 07:30:00,57.1,47.8,30.24,SSE,158,5.0,6.0,71,0.00,,SCT045,0.00,186.00,VWS V15.00,2017-10-21 21:00:00,
2017-10-22 07:31:00,57.1,47.8,30.24,SSW,209,3.0,7.0,71,0.00,,SCT045,0.00,181.00,VWS V15.00,2017-10-21 21:01:00,
2017-10-22 07:32:00,57.2,47.9,30.24,South,182,3.0,7.0,71,0.00,,SCT045,0.00,181.00,VWS V15.00,2017-10-21 21:02:00,
2017-10-22 07:33:00,57.2,47.9,30.24,South,181,2.0,8.0,71,0.00,,SCT045,0.00,197.00,VWS V15.00,2017-10-21 21:03:00,
2017-10-22 07:34:00,57.2,47.9,30.24,South,173,4.0,8.0,71,0.00,,SCT045,0.00,185.00,VWS V15.00,2017-10-21 21:04:00,
2017-10-22 07:35:00,57.2,47.5,30.24,SSE,165,2.0,8.0,70,0.00,,SCT045,0.00,181.00,VWS V15.00,2017-10-21 21:05:00,
2017-10-22 07:36:00,57.2,47.5,30.24,WSW,240,2.0,5.0,70,0.00,,SCT045,0.00,174.00,VWS V15.00,2017-10-21 21:06:00,
2017-10-22 07:37:00,57.3,47.6,30.24,WSW,239,1.0,5.0,70,0.00,,SCT045,0.00,174.00,VWS V15.00,2017-10-21 21:07:00,
2017-10-22 07:38:00,57.3,47.6,30.24,WSW,238,2.0,5.0,70,0.00,,SCT045,0.00,183.00,VWS V15.00,2017-10-21 21:08:00,
2017-10-22 07:39:00,57.3,47.6,30.24,SW,228,1.0,5.0,70,0.00,,SCT045,0.00,193.00,VWS V15.00,2017-10-21 21:09:00,
2017-10-22 07:40:00,57.4,47.7,30.24,South,182,3.0,5.0,70,0.00,,SCT045,0.00,204.00,VWS V15.00,2017-10-21 21:10:00,
2017-10-22 07:41:00,57.4,47.7,30.24,WSW,238,4.0,9.0,70,0.00,,SCT045,0.00,218.00,VWS V15.00,2017-10-21 21:11:00,
2017-10-22 07:42:00,57.4,47.7,30.24,West,275,6.0,9.0,70,0.00,,SCT045,0.00,230.00,VWS V15.00,2017-10-21 21:12:00,
2017-10-22 07:43:00,57.3,47.6,30.24,SSE,168,5.0,9.0,70,0.00,,SCT045,0.00,230.00,VWS V15.00,2017-10-21 21:13:00,
2017-10-22 07:44:00,57.4,47.7,30.24,South,184,3.0,9.0,70,0.00,,SCT045,0.00,230.00,VWS V15.00,2017-10-21 21:14:00,
2017-10-22 07:45:00,57.4,47.7,30.24,SSW,209,6.0,9.0,70,0.00,,SCT045,0.00,236.00,VWS V15.00,2017-10-21 21:15:00,
2017-10-22 07:46:00,57.5,47.8,30.24,South,178,8.0,11.0,70,0.00,,SCT045,0.00,202.00,VWS V15.00,2017-10-21 21:16:00,
2017-10-22 07:47:00,57.5,47.8,30.24,South,186,2.0,11.0,70,0.00,,SCT045,0.00,186.00,VWS V15.00,2017-10-21 21:17:00,
2017-10-22 07:48:00,57.5,47.8,30.24,SSW,196,3.0,11.0,70,0.00,,SCT045,0.00,185.00,VWS V15.00,2017-10-21 21:18:00,
2017-10-22 07:49:00,57.5,47.8,30.24,SSE,161,2.0,11.0,70,0.00,,SCT045,0.00,190.00,VWS V15.00,2017-10-21 21:19:00,
2017-10-22 07:50:00,57.5,47.8,30.24,SSE,162,6.0,11.0,70,0.00,,SCT045,0.00,197.00,VWS V15.00,2017-10-21 21:20:00,
2017-10-22 07:51:00,57.5,47.8,30.24,SSE,159,4.0,7.0,70,0.00,,SCT045,0.00,202.00,VWS V15.00,2017-10-21 21:21:00,
2017-10-22 07:52:00,57.6,47.9,30.24,SSE,165,6.0,8.0,70,0.00,,SCT045,0.00,202.00,VWS V15.00,2017-10-21 21:22:00,
2017-10-22 07:53:00,57.6,47.9,30.24,SSW,206,4.0,8.0,70,0.00,,SCT045,0.00,199.00,VWS V15.00,2017-10-21 21:23:00,
2017-10-22 07:54:00,57.6,47.9,30.24,South,191,4.0,8.0,70,0.00,,SCT045,0.00,227.00,VWS V15.00,2017-10-21 21:24:00,
2017-10-22 07:55:00,57.6,47.9,30.24,WSW,255,6.0,8.0,70,0.00,,SCT045,0.00,227.00,VWS V15.00,2017-10-21 21:25:00,
2017-10-22 07:56:00,57.7,48.0,30.24,SW,217,6.0,9.0,70,0.00,,SCT045,0.00,200.00,VWS V15.00,2017-10-21 21:26:00,
2017-10-22 07:57:00,57.7,48.0,30.24,SW,235,4.0,9.0,70,0.00,,SCT045,0.00,197.00,VWS V15.00,2017-10-21 21:27:00,
2017-10-22 07:58:00,57.8,48.1,30.24,SSW,194,6.0,9.0,70,0.00,,SCT045,0.00,200.00,VWS V15.00,2017-10-21 21:28:00,
2017-10-22 07:59:00,57.8,48.1,30.24,SW,214,3.0,9.0,70,0.00,,SCT045,0.00,225.00,VWS V15.00,2017-10-21 21:29:00,
2017-10-22 08:00:00,57.9,48.2,30.24,SSW,207,5.0,9.0,70,0.00,,SCT045,0.00,223.00,VWS V15.00,2017-10-21 21:30:00,
2017-10-22 08:01:00,58.0,48.7,30.24,WSW,252,2.0,5.0,71,0.00,,SCT045,0.00,207.00,VWS V15.00,2017-10-21 21:31:00,
2017-10-22 08:02:00,58.0,48.3,30.24,SW,215,6.0,8.0,70,0.00,,SCT045,0.00,200.00,VWS V15.00,2017-10-21 21:32:00,
2017-10-22 08:03:00,58.0,48.3,30.24,SSW,209,5.0,8.0,70,0.00,,SCT045,0.00,197.00,VWS V15.00,2017-10-21 21:33:00,
2017-10-22 08:04:00,58.1,48.8,30.24,SSW,209,6.0,8.0,71,0.00,,SCT045,0.00,206.00,VWS V15.00,2017-10-21 21:34:00,
2017-10-22 08:05:00,58.1,48.4,30.24,South,185,6.0,9.0,70,0.00,,SCT045,0.00,227.00,VWS V15.00,2017-10-21 21:35:00,
2017-10-22 08:06:00,58.1,48.4,30.24,SSW,211,4.0,7.0,70,0.00,,SCT045,0.00,243.00,VWS V15.00,2017-10-21 21:36:00,
2017-10-22 08:07:00,58.0,48.3,30.24,SSE,163,5.0,8.0,70,0.00,,SCT045,0.00,251.00,VWS V15.00,2017-10-21 21:37:00,
2017-10-22 08:08:00,58.0,48.3,30.24,SSE,161,7.0,9.0,70,0.00,,SCT045,0.00,250.00,VWS V15.00,2017-10-21 21:38:00,
2017-10-22 08:09:00,58.0,48.3,30.24,South,191,2.0,9.0,70,0.00,,SCT045,0.00,239.00,VWS V15.00,2017-10-21 21:39:00,
2017-10-22 08:10:00,58.0,48.3,30.24,SSE,168,5.0,9.0,70,0.00,,SCT045,0.00,221.00,VWS V15.00,2017-10-21 21:40:00,
2017-10-22 08:11:00,58.0,48.3,30.24,South,169,6.0,12.0,70,0.00,,SCT045,0.00,213.00,VWS V15.00,2017-10-21 21:41:00,
2017-10-22 08:12:00,58.1,48.4,30.24,SSE,160,4.0,12.0,70,0.00,,SCT045,0.00,230.00,VWS V15.00,2017-10-21 21:42:00,
2017-10-22 08:13:00,58.1,48.4,30.24,SW,235,4.0,12.0,70,0.00,,SCT045,0.00,225.00,VWS V15.00,2017-10-21 21:43:00,
2017-10-22 08:14:00,58.1,48.4,30.24,South,176,4.0,12.0,70,0.00,,SCT045,0.00,223.00,VWS V15.00,2017-10-21 21:44:00,
2017-10-22 08:15:00,58.1,48.4,30.24,South,178,1.0,12.0,70,0.00,,SCT045,0.00,213.00,VWS V15.00,2017-10-21 21:45:00,
2017-10-22 08:16:00,58.1,48.4,30.24,SSW,211,2.0,6.0,70,0.00,,SCT045,0.00,209.00,VWS V15.00,2017-10-21 21:46:00,
2017-10-22 08:17:00,58.1,48.4,30.24,SSW,192,4.0,6.0,70,0.00,,SCT045,0.00,206.00,VWS V15.00,2017-10-21 21:47:00,
2017-10-22 08:18:00,58.1,48.4,30.24,SSW,194,2.0,6.0,70,0.00,,SCT045,0.00,288.00,VWS V15.00,2017-10-21 21:48:00,
2017-10-22 08:19:00,58.2,48.5,30.24,South,171,5.0,7.0,70,0.00,,SCT045,0.00,288.00,VWS V15.00,2017-10-21 21:49:00,
2017-10-22 08:20:00,58.3,49.0,30.24,South,184,4.0,12.0,71,0.00,,SCT045,0.00,346.00,VWS V15.00,2017-10-21 21:50:00,
2017-10-22 08:21:00,58.4,48.7,30.24,South,178,6.0,7.0,70,0.00,,SCT045,0.00,346.00,VWS V15.00,2017-10-21 21:51:00,
2017-10-22 08:22:00,58.6,48.9,30.24,South,187,3.0,7.0,70,0.00,,SCT045,0.00,459.00,VWS V15.00,2017-10-21 21:52:00,
2017-10-22 08:23:00,58.7,49.0,30.24,SSE,165,6.0,7.0,70,0.00,,SCT045,0.00,178.00,VWS V15.00,2017-10-21 21:53:00,
2017-10-22 08:24:00,58.8,49.0,30.24,SSE,161,7.0,8.0,70,0.00,,SCT045,0.00,183.00,VWS V15.00,2017-10-21 21:54:00,
2017-10-22 08:25:00,58.8,49.0,30.24,SSE,167,6.0,8.0,70,0.00,,SCT045,0.00,181.00,VWS V15.00,2017-10-21 21:55:00,
2017-10-22 08:26:00,58.7,48.6,30.24,SSE,157,7.0,8.0,69,0.00,,SCT045,0.00,179.00,VWS V15.00,2017-10-21 21:56:00,
2017-10-22 08:27:00,58.7,48.6,30.24,SSE,155,4.0,8.0,69,0.00,,SCT045,0.00,188.00,VWS V15.00,2017-10-21 21:57:00,
2017-10-22 08:28:00,58.6,48.5,30.24,South,170,9.0,9.0,69,0.00,,SCT045,0.00,202.00,VWS V15.00,2017-10-21 21:58:00,
2017-10-22 08:29:00,58.6,48.5,30.24,South,169,10.0,10.0,69,0.00,,SCT045,0.00,213.00,VWS V15.00,2017-10-21 21:59:00,
2017-10-22 08:30:00,58.6,48.5,30.24,SSE,161,5.0,10.0,69,0.00,,SCT045,0.00,213.00,VWS V15.00,2017-10-21 22:00:00,
2017-10-22 08:31:00,58.6,48.5,30.24,South,171,6.0,8.0,69,0.00,,SCT045,0.00,204.00,VWS V15.00,2017-10-21 22:01:00,
2017-10-22 08:32:00,58.6,48.5,30.24,SSE,161,10.0,10.0,69,0.00,,SCT045,0.00,211.00,VWS V15.00,2017-10-21 22:02:00,
2017-10-22 08:33:00,58.5,48.4,30.24,SSE,167,6.0,10.0,69,0.00,,SCT045,0.00,209.00,VWS V15.00,2017-10-21 22:03:00,
2017-10-22 08:34:00,58.5,48.4,30.24,SSE,165,6.0,10.0,69,0.00,,SCT045,0.00,200.00,VWS V15.00,2017-10-21 22:04:00,
2017-10-22 08:35:00,58.5,48.4,30.24,SSE,166,4.0,10.0,69,0.00,,SCT045,0.00,193.00,VWS V15.00,2017-10-21 22:05:00,
2017-10-22 08:36:00,58.5,48.4,30.24,SSE,152,4.0,6.0,69,0.00,,SCT045,0.00,193.00,VWS V15.00,2017-10-21 22:06:00,
2017-10-22 08:37:00,58.5,48.4,30.24,South,180,6.0,11.0,69,0.00,,SCT045,0.00,190.00,VWS V15.00,2017-10-21 22:07:00,
2017-10-22 08:38:00,58.4,48.3,30.24,SSW,192,4.0,11.0,69,0.00,,SCT045,0.00,197.00,VWS V15.00,2017-10-21 22:08:00,
2017-10-22 08:39:00,58.4,48.3,30.24,South,177,8.0,11.0,69,0.00,,SCT045,0.00,213.00,VWS V15.00,2017-10-21 22:09:00,
2017-10-22 08:40:00,58.4,48.3,30.24,SSE,164,2.0,11.0,69,0.00,,SCT045,0.00,220.00,VWS V15.00,2017-10-21 22:10:00,
2017-10-22 08:41:00,58.4,48.3,30.24,SSW,197,1.0,9.0,69,0.00,,SCT045,0.00,227.00,VWS V15.00,2017-10-21 22:11:00,
2017-10-22 08:42:00,58.4,48.3,30.24,SSW,213,5.0,9.0,69,0.00,,SCT045,0.00,246.00,VWS V15.00,2017-10-21 22:12:00,
2017-10-22 08:43:00,58.4,48.3,30.24,SW,226,6.0,9.0,69,0.00,,SCT045,0.00,306.00,VWS V15.00,2017-10-21 22:13:00,
2017-10-22 08:44:00,58.5,48.4,30.24,South,174,5.0,9.0,69,0.00,,SCT045,0.00,306.00,VWS V15.00,2017-10-21 22:14:00,
2017-10-22 08:45:00,58.5,48.8,30.24,SW,217,7.0,9.0,70,0.00,,SCT045,0.00,332.00,VWS V15.00,2017-10-21 22:15:00,
2017-10-22 08:46:00,58.5,48.8,30.24,SSW,204,2.0,7.0,70,0.00,,SCT045,0.00,318.00,VWS V15.00,2017-10-21 22:16:00,
2017-10-22 08:47:00,58.6,48.9,30.24,SSW,199,3.0,7.0,70,0.00,,SCT045,0.00,329.00,VWS V15.00,2017-10-21 22:17:00,
2017-10-22 08:48:00,58.7,49.0,30.24,SSW,206,2.0,7.0,70,0.00,,SCT045,0.00,341.00,VWS V15.00,2017-10-21 22:18:00,
2017-10-22 08:49:00,58.8,49.0,30.24,SSW,202,3.0,7.0,70,0.00,,SCT045,0.00,357.00,VWS V15.00,2017-10-21 22:19:00,
2017-10-22 08:50:00,58.9,49.2,30.24,SSE,167,5.0,8.0,70,0.00,,SCT045,0.00,373.00,VWS V15.00,2017-10-21 22:20:00,
2017-10-22 08:51:00,59.0,49.2,30.24,SSW,203,2.0,6.0,70,0.00,,SCT045,0.00,432.00,VWS V15.00,2017-10-21 22:21:00,
2017-10-22 08:52:00,59.1,49.0,30.24,South,178,6.0,6.0,69,0.00,,SCT045,0.00,373.00,VWS V15.00,2017-10-21 22:22:00,
2017-10-22 08:53:00,59.2,49.0,30.24,SSE,157,5.0,9.0,69,0.00,,SCT045,0.00,373.00,VWS V15.00,2017-10-21 22:23:00,
2017-10-22 08:54:00,59.3,49.1,30.24,South,171,4.0,9.0,69,0.00,,SCT045,0.00,352.00,VWS V15.00,2017-10-21 22:24:00,
2017-10-22 08:55:00,59.4,49.2,30.24,South,169,5.0,9.0,69,0.00,,SCT045,0.00,348.00,VWS V15.00,2017-10-21 22:25:00,
2017-10-22 08:56:00,59.5,49.3,30.24,South,170,6.0,7.0,69,0.00,,SCT045,0.00,411.00,VWS V15.00,2017-10-21 22:26:00,
2017-10-22 08:57:00,59.5,49.3,30.24,SSE,159,7.0,9.0,69,0.00,,SCT045,0.00,438.00,VWS V15.00,2017-10-21 22:27:00,
2017-10-22 08:58:00,59.5,48.9,30.24,SSE,160,4.0,9.0,68,0.00,,SCT045,0.00,438.00,VWS V15.00,2017-10-21 22:28:00,
2017-10-22 08:59:00,59.7,49.5,30.24,SSE,156,7.0,9.0,69,0.00,,SCT045,0.00,508.00,VWS V15.00,2017-10-21 22:29:00,
2017-10-22 09:00:00,59.7,49.5,30.24,South,172,5.0,9.0,69,0.00,,SCT045,0.00,446.00,VWS V15.00,2017-10-21 22:30:00,
2017-10-22 09:01:00,59.9,49.3,30.24,SW,216,2.0,5.0,68,0.00,,SCT045,0.00,396.00,VWS V15.00,2017-10-21 22:31:00,
2017-10-22 09:02:00,60.1,49.5,30.24,SSW,194,3.0,8.0,68,0.00,,SCT045,0.00,399.00,VWS V15.00,2017-10-21 22:32:00,
2017-10-22 09:03:00,60.3,50.1,30.24,SSW,213,2.0,8.0,69,0.00,,SCT045,0.00,399.00,VWS V15.00,2017-10-21 22:33:00,
2017-10-22 09:04:00,60.3,49.7,30.24,SSE,168,6.0,8.0,68,0.00,,SCT045,0.00,397.00,VWS V15.00,2017-10-21 22:34:00,
2017-10-22 09:05:00,60.4,49.8,30.24,South,169,1.0,8.0,68,0.00,,SCT045,0.00,392.00,VWS V15.00,2017-10-21 22:35:00,
2017-10-22 09:06:00,60.4,49.4,30.24,South,169,5.0,5.0,67,0.00,,SCT045,0.00,369.00,VWS V15.00,2017-10-21 22:36:00,
2017-10-22 09:07:00,60.4,49.8,30.24,South,181,1.0,5.0,68,0.00,,SCT045,0.00,355.00,VWS V15.00,2017-10-21 22:37:00,
2017-10-22 09:08:00,60.4,49.4,30.24,South,182,1.0,5.0,67,0.00,,SCT045,0.00,352.00,VWS V15.00,2017-10-21 22:38:00,
2017-10-22 09:09:00,60.3,49.3,30.24,SE,144,4.0,5.0,67,0.00,,SCT045,0.00,355.00,VWS V15.00,2017-10-21 22:39:00,
2017-10-22 09:10:00,60.4,49.4,30.24,South,171,6.0,8.0,67,0.00,,SCT045,0.00,362.00,VWS V15.00,2017-10-21 22:40:00,
2017-10-22 09:11:00,60.5,49.9,30.24,South,186,4.0,8.0,68,0.00,,SCT045,0.00,320.00,VWS V15.00,2017-10-21 22:41:00,
2017-10-22 09:12:00,60.5,49.5,30.24,SSE,152,6.0,8.0,67,0.00,,SCT045,0.00,295.00,VWS V15.00,2017-10-21 22:42:00,
2017-10-22 09:13:00,60.5,49.5,30.24,SSW,202,4.0,8.0,67,0.00,,SCT045,0.00,229.00,VWS V15.00,2017-10-21 22:43:00,
2017-10-22 09:14:00,60.5,49.5,30.24,SW,217,2.0,8.0,67,0.00,,SCT045,0.00,216.00,VWS V15.00,2017-10-21 22:44:00,
2017-10-22 09:15:00,60.5,49.5,30.24,WSW,238,4.0,8.0,67,0.00,,SCT045,0.00,211.00,VWS V15.00,2017-10-21 22:45:00,
2017-10-22 09:16:00,60.5,49.5,30.24,SSW,201,2.0,6.0,67,0.00,,SCT045,0.00,214.00,VWS V15.00,2017-10-21 22:46:00,
2017-10-22 09:17:00,60.4,49.8,30.24,SW,224,3.0,6.0,68,0.00,,SCT045,0.00,227.00,VWS V15.00,2017-10-21 22:47:00,
2017-10-22 09:18:00,60.3,49.7,30.24,WSW,248,8.0,9.0,68,0.00,,SCT045,0.00,241.00,VWS V15.00,2017-10-21 22:48:00,
2017-10-22 09:19:00,60.3,49.7,30.24,SSW,195,3.0,9.0,68,0.00,,SCT045,0.00,241.00,VWS V15.00,2017-10-21 22:49:00,
2017-10-22 09:20:00,60.3,50.1,30.24,SW,222,2.0,9.0,69,0.00,,SCT045,0.00,241.00,VWS V15.00,2017-10-21 22:50:00,
2017-10-22 09:21:00,60.2,49.6,30.24,WSW,240,2.0,7.0,68,0.00,,SCT045,0.00,265.00,VWS V15.00,2017-10-21 22:51:00,
2017-10-22 09:22:00,60.0,49.8,30.24,WSW,252,5.0,8.0,69,0.00,,SCT045,0.00,281.00,VWS V15.00,2017-10-21 22:52:00,
2017-10-22 09:23:00,59.9,49.7,30.24,WSW,251,3.0,8.0,69,0.00,,SCT045,0.00,297.00,VWS V15.00,2017-10-21 22:53:00,
2017-10-22 09:24:00,59.8,49.6,30.24,SW,227,4.0,12.0,69,0.00,,SCT045,0.00,315.00,VWS V15.00,2017-10-21 22:54:00,
2017-10-22 09:25:00,59.8,49.6,30.24,WSW,254,12.0,12.0,69,0.00,,SCT045,0.00,330.00,VWS V15.00,2017-10-21 22:55:00,
2017-10-22 09:26:00,59.8,49.6,30.24,WSW,248,7.0,12.0,69,0.00,,SCT045,0.00,336.00,VWS V15.00,2017-10-21 22:56:00,
2017-10-22 09:27:00,59.7,49.5,30.24,SW,232,6.0,12.0,69,0.00,,SCT045,0.00,339.00,VWS V15.00,2017-10-21 22:57:00,
2017-10-22 09:28:00,59.7,49.9,30.24,WSW,247,2.0,12.0,70,0.00,,SCT045,0.00,352.00,VWS V15.00,2017-10-21 22:58:00,
2017-10-22 09:29:00,59.7,49.9,30.24,SW,234,3.0,12.0,70,0.00,,SCT045,0.00,364.00,VWS V15.00,2017-10-21 22:59:00,
2017-10-22 09:30:00,59.7,50.7,30.24,WSW,244,3.0,12.0,72,0.00,,SCT045,0.00,392.00,VWS V15.00,2017-10-21 23:00:00,
2017-10-22 09:31:00,59.9,50.1,30.24,West,270,4.0,8.0,70,0.00,,SCT045,0.00,399.00,VWS V15.00,2017-10-21 23:01:00,
2017-10-22 09:32:00,60.0,50.6,30.24,WSW,238,1.0,8.0,71,0.00,,SCT045,0.00,404.00,VWS V15.00,2017-10-21 23:02:00,
2017-10-22 09:33:00,60.0,50.2,30.24,West,270,4.0,8.0,70,0.00,,SCT045,0.00,418.00,VWS V15.00,2017-10-21 23:03:00,
2017-10-22 09:34:00,60.1,50.3,30.24,WSW,252,4.0,8.0,70,0.00,,SCT045,0.00,410.00,VWS V15.00,2017-10-21 23:04:00,
2017-10-22 09:35:00,60.2,50.4,30.24,SW,234,6.0,8.0,70,0.00,,SCT045,0.00,417.00,VWS V15.00,2017-10-21 23:05:00,
2017-10-22 09:36:00,60.3,50.5,30.24,WSW,244,4.0,6.0,70,0.00,,SCT045,0.00,448.00,VWS V15.00,2017-10-21 23:06:00,
2017-10-22 09:37:00,60.4,50.6,30.24,WSW,253,1.0,6.0,70,0.00,,SCT045,0.00,522.00,VWS V15.00,2017-10-21 23:07:00,
2017-10-22 09:38:00,60.5,50.7,30.24,West,277,6.0,10.0,70,0.00,,SCT045,0.00,508.00,VWS V15.00,2017-10-21 23:08:00,
2017-10-22 09:39:00,60.7,50.9,30.24,SW,225,4.0,10.0,70,0.00,,SCT045,0.00,508.00,VWS V15.00,2017-10-21 23:09:00,
2017-10-22 09:40:00,60.8,50.6,30.24,West,265,5.0,10.0,69,0.00,,SCT045,0.00,508.00,VWS V15.00,2017-10-21 23:10:00,
2017-10-22 09:41:00,61.0,51.2,30.24,West,265,5.0,9.0,70,0.00,,SCT045,0.00,404.00,VWS V15.00,2017-10-21 23:11:00,
2017-10-22 09:42:00,61.1,50.5,30.24,SSW,213,4.0,9.0,68,0.00,,SCT045,0.00,401.00,VWS V15.00,2017-10-21 23:12:00,
2017-10-22 09:43:00,61.1,50.5,30.24,SSW,210,5.0,9.0,68,0.00,,SCT045,0.00,394.00,VWS V15.00,2017-10-21 23:13:00,
2017-10-22 09:44:00,61.1,50.5,30.24,WSW,240,2.0,9.0,68,0.00,,SCT045,0.00,376.00,VWS V15.00,2017-10-21 23:14:00,
2017-10-22 09:45:00,61.2,50.6,30.24,South,180,3.0,9.0,68,0.00,,SCT045,0.00,359.00,VWS V15.00,2017-10-21 23:15:00,
2017-10-22 09:46:00,61.2,50.6,30.24,SSW,204,2.0,7.0,68,0.00,,SCT045,0.00,406.00,VWS V15.00,2017-10-21 23:16:00,
2017-10-22 09:47:00,61.1,50.1,30.24,SSW,209,4.0,7.0,67,0.00,,SCT045,0.00,443.00,VWS V15.00,2017-10-21 23:17:00,
2017-10-22 09:48:00,61.1,50.1,30.24,SSW,205,2.0,7.0,67,0.00,,SCT045,0.00,519.00,VWS V15.00,2017-10-21 23:18:00,
2017-10-22 09:49:00,61.1,50.1,30.24,South,184,3.0,7.0,67,0.00,,SCT045,0.00,429.00,VWS V15.00,2017-10-21 23:19:00,
2017-10-22 09:50:00,61.1,50.1,30.24,SSE,155,4.0,7.0,67,0.00,,SCT045,0.00,413.00,VWS V15.00,2017-10-21 23:20:00,
2017-10-22 09:51:00,61.2,50.6,30.24,South,190,3.0,4.0,68,0.00,,SCT045,0.00,469.00,VWS V15.00,2017-10-21 23:21:00,
2017-10-22 09:52:00,61.2,50.6,30.24,SSW,202,5.0,6.0,68,0.00,,SCT045,0.00,469.00,VWS V15.00,2017-10-21 23:22:00,
2017-10-22 09:53:00,61.3,50.7,30.24,SW,234,3.0,8.0,68,0.00,,SCT045,0.00,469.00,VWS V15.00,2017-10-21 23:23:00,
2017-10-22 09:54:00,61.4,50.8,30.24,WSW,254,3.0,8.0,68,0.00,,SCT045,0.00,909.00,VWS V15.00,2017-10-21 23:24:00,
2017-10-22 09:55:00,61.3,50.3,30.24,SSW,198,2.0,8.0,67,0.00,,SCT045,0.00,909.00,VWS V15.00,2017-10-21 23:25:00,
2017-10-22 09:56:00,61.4,50.8,30.24,SW,236,4.0,7.0,68,0.00,,SCT045,0.00,534.00,VWS V15.00,2017-10-21 23:26:00,
2017-10-22 09:57:00,61.6,51.3,30.24,South,186,3.0,9.0,69,0.00,,SCT045,0.00,466.00,VWS V15.00,2017-10-21 23:27:00,
2017-10-22 09:58:00,61.7,51.4,30.24,SSW,209,8.0,12.0,69,0.00,,SCT045,0.00,369.00,VWS V15.00,2017-10-21 23:28:00,
2017-10-22 09:59:00,61.8,51.5,30.24,SSW,213,9.0,12.0,69,0.00,,SCT045,0.00,353.00,VWS V15.00,2017-10-21 23:29:00,
2017-10-22 10:00:00,61.8,51.1,30.24,SSW,207,2.0,12.0,68,0.00,,SCT045,0.00,410.00,VWS V15.00,2017-10-21 23:30:00,
2017-10-22 10:01:00,61.7,51.4,30.24,WSW,240,5.0,8.0,69,0.00,,SCT045,0.00,422.00,VWS V15.00,2017-10-21 23:31:00,
2017-10-22 10:02:00,61.7,51.4,30.24,WSW,244,4.0,8.0,69,0.00,,SCT045,0.00,422.00,VWS V15.00,2017-10-21 23:32:00,
2017-10-22 10:03:00,61.7,51.4,30.24,WSW,242,0.0,8.0,69,0.00,,SCT045,0.00,394.00,VWS V15.00,2017-10-21 23:33:00,
2017-10-22 10:04:00,61.6,51.0,30.24,SW,216,4.0,8.0,68,0.00,,SCT045,0.00,446.00,VWS V15.00,2017-10-21 23:34:00,
2017-10-22 10:05:00,61.5,51.2,30.24,WSW,250,2.0,8.0,69,0.00,,SCT045,0.00,446.00,VWS V15.00,2017-10-21 23:35:00,
2017-10-22 10:06:00,61.5,51.2,30.24,SSW,198,5.0,7.0,69,0.00,,SCT045,0.00,446.00,VWS V15.00,2017-10-21 23:36:00,
2017-10-22 10:07:00,61.5,51.2,30.24,SSW,200,5.0,9.0,69,0.00,,SCT045,0.00,429.00,VWS V15.00,2017-10-21 23:37:00,
2017-10-22 10:08:00,61.5,51.2,30.24,WSW,246,7.0,9.0,69,0.00,,SCT045,0.00,411.00,VWS V15.00,2017-10-21 23:38:00,
2017-10-22 10:09:00,61.5,51.2,30.24,WSW,256,3.0,9.0,69,0.00,,SCT045,0.00,401.00,VWS V15.00,2017-10-21 23:39:00,
2017-10-22 10:10:00,61.5,51.2,30.24,SSW,207,6.0,9.0,69,0.00,,SCT045,0.00,392.00,VWS V15.00,2017-10-21 23:40:00,
2017-10-22 10:11:00,61.5,51.2,30.24,WNW,292,5.0,10.0,69,0.00,,SCT045,0.00,380.00,VWS V15.00,2017-10-21 23:41:00,
2017-10-22 10:12:00,61.4,51.2,30.24,NW,305,3.0,10.0,69,0.00,,SCT045,0.00,380.00,VWS V15.00,2017-10-21 23:42:00,
2017-10-22 10:13:00,61.2,51.0,30.24,West,269,4.0,10.0,69,0.00,,SCT045,0.00,378.00,VWS V15.00,2017-10-21 23:43:00,
2017-10-22 10:14:00,61.2,51.0,30.24,SW,227,4.0,10.0,69,0.00,,SCT045,0.00,373.00,VWS V15.00,2017-10-21 23:44:00,
2017-10-22 10:15:00,61.0,50.8,30.23,SW,219,6.0,10.0,69,0.00,,SCT045,0.00,366.00,VWS V15.00,2017-10-21 23:45:00,
2017-10-22 10:16:00,61.0,50.8,30.24,SSW,209,4.0,9.0,69,0.00,,SCT045,0.00,353.00,VWS V15.00,2017-10-21 23:46:00,
2017-10-22 10:17:00,60.9,50.7,30.23,WSW,237,6.0,9.0,69,0.00,,SCT045,0.00,343.00,VWS V15.00,2017-10-21 23:47:00,
2017-10-22 10:18:00,60.9,51.1,30.23,WSW,243,2.0,9.0,70,0.00,,SCT045,0.00,336.00,VWS V15.00,2017-10-21 23:48:00,
2017-10-22 10:19:00,60.9,51.1,30.23,West,269,2.0,9.0,70,0.00,,SCT045,0.00,334.00,VWS V15.00,2017-10-21 23:49:00,
2017-10-22 10:20:00,60.8,51.0,30.23,WSW,255,10.0,10.0,70,0.00,,SCT045,0.00,343.00,VWS V15.00,2017-10-21 23:50:00,
2017-10-22 10:21:00,60.7,50.9,30.23,SW,236,5.0,12.0,70,0.00,,SCT045,0.00,366.00,VWS V15.00,2017-10-21 23:51:00,
2017-10-22 10:22:00,60.6,50.8,30.23,WSW,250,2.0,12.0,70,0.00,,SCT045,0.00,376.00,VWS V15.00,2017-10-21 23:52:00,
2017-10-22 10:23:00,60.6,50.8,30.23,SW,224,2.0,12.0,70,0.00,,SCT045,0.00,383.00,VWS V15.00,2017-10-21 23:53:00,
2017-10-22 10:24:00,60.7,51.2,30.23,SW,227,2.0,12.0,71,0.00,,SCT045,0.00,390.00,VWS V15.00,2017-10-21 23:54:00,
2017-10-22 10:25:00,60.7,51.2,30.23,South,182,3.0,12.0,71,0.00,,SCT045,0.00,401.00,VWS V15.00,2017-10-21 23:55:00,
2017-10-22 10:26:00,60.8,51.3,30.23,SW,226,6.0,10.0,71,0.00,,SCT045,0.00,415.00,VWS V15.00,2017-10-21 23:56:00,
2017-10-22 10:27:00,60.9,51.5,30.23,South,169,5.0,10.0,71,0.00,,SCT045,0.00,427.00,VWS V15.00,2017-10-21 23:57:00,
2017-10-22 10:28:00,61.0,51.5,30.23,SSW,208,6.0,10.0,71,0.00,,SCT045,0.00,434.00,VWS V15.00,2017-10-21 23:58:00,
2017-10-22 10:29:00,61.0,51.5,30.23,SW,231,6.0,10.0,71,0.00,,SCT045,0.00,418.00,VWS V15.00,2017-10-21 23:59:00,
2017-10-22 10:30:00,61.0,51.5,30.23,SSW,213,4.0,10.0,71,0.00,,SCT045,0.00,392.00,VWS V15.00,2017-10-22 00:00:00,
2017-10-22 10:31:00,61.0,51.5,30.23,WSW,242,3.0,5.0,71,0.00,,SCT045,0.00,357.00,VWS V15.00,2017-10-22 00:01:00,
2017-10-22 10:32:00,61.1,51.2,30.23,South,191,6.0,8.0,70,0.00,,SCT045,0.00,320.00,VWS V15.00,2017-10-22 00:02:00,
2017-10-22 10:33:00,61.1,51.6,30.23,SW,221,2.0,8.0,71,0.00,,SCT045,0.00,294.00,VWS V15.00,2017-10-22 00:03:00,
2017-10-22 10:34:00,61.1,51.6,30.23,SW,227,4.0,9.0,71,0.00,,SCT045,0.00,288.00,VWS V15.00,2017-10-22 00:04:00,
2017-10-22 10:35:00,61.1,51.6,30.23,SSW,206,7.0,9.0,71,0.00,,SCT045,0.00,295.00,VWS V15.00,2017-10-22 00:05:00,
2017-10-22 10:36:00,61.1,51.6,30.23,SW,215,4.0,9.0,71,0.00,,SCT045,0.00,318.00,VWS V15.00,2017-10-22 00:06:00,
2017-10-22 10:37:00,61.1,51.6,30.23,SW,229,5.0,9.0,71,0.00,,SCT045,0.00,330.00,VWS V15.00,2017-10-22 00:07:00,
2017-10-22 10:38:00,61.1,51.6,30.23,SW,236,7.0,9.0,71,0.00,,SCT045,0.00,330.00,VWS V15.00,2017-10-22 00:08:00,
2017-10-22 10:39:00,61.0,51.5,30.23,WSW,248,9.0,9.0,71,0.00,,SCT045,0.00,366.00,VWS V15.00,2017-10-22 00:09:00,
2017-10-22 10:40:00,60.9,51.5,30.23,WSW,252,7.0,12.0,71,0.00,,SCT045,0.00,499.00,VWS V15.00,2017-10-22 00:10:00,
2017-10-22 10:41:00,60.8,51.3,30.23,SW,224,4.0,8.0,71,0.00,,SCT045,0.00,432.00,VWS V15.00,2017-10-22 00:11:00,
2017-10-22 10:42:00,60.9,51.8,30.23,SSW,212,6.0,8.0,72,0.00,,SCT045,0.00,432.00,VWS V15.00,2017-10-22 00:12:00,
2017-10-22 10:43:00,60.9,51.8,30.23,WSW,257,8.0,9.0,72,0.00,,SCT045,0.00,376.00,VWS V15.00,2017-10-22 00:13:00,
2017-10-22 10:44:00,60.9,51.5,30.23,West,274,7.0,9.0,71,0.00,,SCT045,0.00,371.00,VWS V15.00,2017-10-22 00:14:00,
2017-10-22 10:45:00,60.9,51.8,30.23,WSW,238,3.0,9.0,72,0.00,,SCT045,0.00,383.00,VWS V15.00,2017-10-22 00:15:00,
2017-10-22 10:46:00,60.9,51.8,30.23,WSW,249,4.0,7.0,72,0.00,,SCT045,0.00,411.00,VWS V15.00,2017-10-22 00:16:00,
2017-10-22 10:47:00,60.9,51.8,30.23,SW,216,7.0,12.0,72,0.00,,SCT045,0.00,385.00,VWS V15.00,2017-10-22 00:17:00,
2017-10-22 10:48:00,61.0,51.9,30.23,SW,223,9.0,12.0,72,0.00,,SCT045,0.00,353.00,VWS V15.00,2017-10-22 00:18:00,
2017-10-22 10:49:00,61.1,52.0,30.23,SSW,211,4.0,12.0,72,0.00,,SCT045,0.00,360.00,VWS V15.00,2017-10-22 00:19:00,
2017-10-22 10:50:00,61.2,52.5,30.23,SW,227,12.0,12.0,73,0.00,,SCT045,0.00,418.00,VWS V15.00,2017-10-22 00:20:00,
2017-10-22 10:51:00,61.3,52.2,30.23,West,264,5.0,12.0,72,0.00,,SCT045,0.00,418.00,VWS V15.00,2017-10-22 00:21:00,
2017-10-22 10:52:00,61.2,52.1,30.23,SW,224,5.0,12.0,72,0.00,,SCT045,0.00,418.00,VWS V15.00,2017-10-22 00:22:00,
2017-10-22 10:53:00,61.3,52.2,30.23,SW,235,3.0,12.0,72,0.00,,SCT045,0.00,418.00,VWS V15.00,2017-10-22 00:23:00,
2017-10-22 10:54:00,61.4,52.7,30.23,SW,224,2.0,12.0,73,0.00,,SCT045,0.00,577.00,VWS V15.00,2017-10-22 00:24:00,
2017-10-22 10:55:00,61.5,52.8,30.23,SW,227,5.0,12.0,73,0.00,,SCT045,0.00,577.00,VWS V15.00,2017-10-22 00:25:00,
2017-10-22 10:56:00,62.0,53.3,30.23,West,267,5.0,5.0,73,0.00,,SCT045,0.00,846.00,VWS V15.00,2017-10-22 00:26:00,
2017-10-22 10:57:00,62.4,53.6,30.23,South,174,8.0,8.0,73,0.00,,SCT045,0.00,438.00,VWS V15.00,2017-10-22 00:27:00,
2017-10-22 10:58:00,62.5,53.4,30.23,SW,232,6.0,10.0,72,0.00,,SCT045,0.00,397.00,VWS V15.00,2017-10-22 00:28:00,
2017-10-22 10:59:00,62.7,53.2,30.23,SW,236,4.0,10.0,71,0.00,,SCT045,0.00,371.00,VWS V15.00,2017-10-22 00:29:00,
2017-10-22 11:00:00,62.6,53.1,30.23,SW,223,2.0,10.0,71,0.00,,SCT045,0.00,362.00,VWS V15.00,2017-10-22 00:30:00,
2017-10-22 11:01:00,62.4,52.5,30.23,SSW,205,5.0,6.0,70,0.00,,SCT045,0.00,360.00,VWS V15.00,2017-10-22 00:31:00,
2017-10-22 11:02:00,62.2,52.7,30.23,SSW,205,4.0,8.0,71,0.00,,SCT045,0.00,364.00,VWS V15.00,2017-10-22 00:32:00,
2017-10-22 11:03:00,62.2,52.7,30.23,SW,219,7.0,8.0,71,0.00,,SCT045,0.00,369.00,VWS V15.00,2017-10-22 00:33:00,
2017-10-22 11:04:00,62.1,52.2,30.23,WSW,246,5.0,9.0,70,0.00,,SCT045,0.00,376.00,VWS V15.00,2017-10-22 00:34:00,
2017-10-22 11:05:00,62.0,52.1,30.23,SW,216,3.0,9.0,70,0.00,,SCT045,0.00,418.00,VWS V15.00,2017-10-22 00:35:00,
2017-10-22 11:06:00,61.9,52.0,30.22,West,259,5.0,8.0,70,0.00,,SCT045,0.00,454.00,VWS V15.00,2017-10-22 00:36:00,
2017-10-22 11:07:00,61.8,51.9,30.22,SW,234,2.0,10.0,70,0.00,,SCT045,0.00,487.00,VWS V15.00,2017-10-22 00:37:00,
2017-10-22 11:08:00,61.7,51.8,30.22,SW,219,4.0,11.0,70,0.00,,SCT045,0.00,504.00,VWS V15.00,2017-10-22 00:38:00,
2017-10-22 11:09:00,61.7,51.8,30.22,SSW,193,6.0,11.0,70,0.00,,SCT045,0.00,520.00,VWS V15.00,2017-10-22 00:39:00,
2017-10-22 11:10:00,61.8,52.3,30.22,SW,234,5.0,11.0,71,0.00,,SCT045,0.00,501.00,VWS V15.00,2017-10-22 00:40:00,
2017-10-22 11:11:00,62.0,52.5,30.22,WSW,243,4.0,6.0,71,0.00,,SCT045,0.00,480.00,VWS V15.00,2017-10-22 00:41:00,
2017-10-22 11:12:00,62.1,52.6,30.22,SW,214,7.0,9.0,71,0.00,,SCT045,0.00,554.00,VWS V15.00,2017-10-22 00:42:00,
2017-10-22 11:13:00,62.1,52.6,30.22,WSW,258,4.0,9.0,71,0.00,,SCT045,0.00,554.00,VWS V15.00,2017-10-22 00:43:00,
2017-10-22 11:14:00,62.2,52.3,30.22,SW,229,9.0,9.0,70,0.00,,SCT045,0.00,661.00,VWS V15.00,2017-10-22 00:44:00,
2017-10-22 11:15:00,62.2,52.3,30.22,SW,222,3.0,9.0,70,0.00,,SCT045,0.00,661.00,VWS V15.00,2017-10-22 00:45:00,
2017-10-22 11:16:00,62.2,52.3,30.22,SW,224,2.0,8.0,70,0.00,,SCT045,0.00,469.00,VWS V15.00,2017-10-22 00:46:00,
2017-10-22 11:17:00,62.2,52.3,30.22,WSW,252,8.0,13.0,70,0.00,,SCT045,0.00,457.00,VWS V15.00,2017-10-22 00:47:00,
2017-10-22 11:18:00,62.2,52.3,30.22,WSW,257,10.0,13.0,70,0.00,,SCT045,0.00,469.00,VWS V15.00,2017-10-22 00:48:00,
2017-10-22 11:19:00,62.2,52.3,30.22,WSW,248,10.0,13.0,70,0.00,,SCT045,0.00,545.00,VWS V15.00,2017-10-22 00:49:00,
2017-10-22 11:20:00,62.2,52.3,30.22,SW,234,6.0,10.0,70,0.00,,SCT045,0.00,603.00,VWS V15.00,2017-10-22 00:50:00,
2017-10-22 11:21:00,62.2,52.3,30.22,West,277,5.0,10.0,70,0.00,,SCT045,0.00,603.00,VWS V15.00,2017-10-22 00:51:00,
2017-10-22 11:22:00,62.3,52.4,30.22,WSW,238,5.0,10.0,70,0.00,,SCT045,0.00,406.00,VWS V15.00,2017-10-22 00:52:00,
2017-10-22 11:23:00,62.3,52.4,30.22,WSW,243,6.0,10.0,70,0.00,,SCT045,0.00,378.00,VWS V15.00,2017-10-22 00:53:00,
2017-10-22 11:24:00,62.3,52.4,30.22,SW,236,6.0,10.0,70,0.00,,SCT045,0.00,345.00,VWS V15.00,2017-10-22 00:54:00,
2017-10-22 11:25:00,62.3,52.4,30.22,SW,225,5.0,10.0,70,0.00,,SCT045,0.00,318.00,VWS V15.00,2017-10-22 00:55:00,
2017-10-22 11:26:00,62.1,52.2,30.22,West,267,6.0,7.0,70,0.00,,SCT045,0.00,306.00,VWS V15.00,2017-10-22 00:56:00,
2017-10-22 11:27:00,61.9,52.0,30.22,West,273,8.0,11.0,70,0.00,,SCT045,0.00,313.00,VWS V15.00,2017-10-22 00:57:00,
2017-10-22 11:28:00,61.7,51.8,30.22,West,266,2.0,11.0,70,0.00,,SCT045,0.00,334.00,VWS V15.00,2017-10-22 00:58:00,
2017-10-22 11:29:00,61.5,51.6,30.22,WSW,246,4.0,11.0,70,0.00,,SCT045,0.00,373.00,VWS V15.00,2017-10-22 00:59:00,
2017-10-22 11:30:00,61.4,51.5,30.22,WSW,247,3.0,11.0,70,0.00,,SCT045,0.00,422.00,VWS V15.00,2017-10-22 01:00:00,
2017-10-22 11:31:00,61.4,51.9,30.22,WSW,251,3.0,4.0,71,0.00,,SCT045,0.00,476.00,VWS V15.00,2017-10-22 01:01:00,
2017-10-22 11:32:00,61.4,51.9,30.22,WSW,254,8.0,10.0,71,0.00,,SCT045,0.00,536.00,VWS V15.00,2017-10-22 01:02:00,
2017-10-22 11:33:00,61.5,52.4,30.22,West,261,5.0,11.0,72,0.00,,SCT045,0.00,489.00,VWS V15.00,2017-10-22 01:03:00,
2017-10-22 11:34:00,61.6,52.5,30.22,SW,223,6.0,11.0,72,0.00,,SCT045,0.00,524.00,VWS V15.00,2017-10-22 01:04:00,
2017-10-22 11:35:00,61.7,52.6,30.22,SW,229,3.0,11.0,72,0.00,,SCT045,0.00,566.00,VWS V15.00,2017-10-22 01:05:00,
2017-10-22 11:36:00,62.0,52.9,30.22,West,265,7.0,10.0,72,0.00,,SCT045,0.00,594.00,VWS V15.00,2017-10-22 01:06:00,
2017-10-22 11:37:00,62.1,53.0,30.21,West,273,2.0,10.0,72,0.00,,SCT045,0.00,476.00,VWS V15.00,2017-10-22 01:07:00,
2017-10-22 11:38:00,62.2,53.1,30.21,WSW,254,4.0,11.0,72,0.00,,SCT045,0.00,508.00,VWS V15.00,2017-10-22 01:08:00,